Time,TemperatureF,DewpointF,PressureIn,WindDirection,WindDirectionDegrees,WindSpeedMPH,WindSpeedGustMPH,Humidity,HourlyPrecipIn,Conditions,Clouds,dailyrainin,SoftwareType,DateUTC
2013-02-03 00:03:00,27.0,19.8,30.01,West,270,1.8,5.6,74,0.00,,,0.00,WUHU216HW,2013-02-03 07:03:00,
2013-02-03 00:04:00,27.0,19.8,30.01,WSW,248,2.7,3.6,74,0.00,,,0.00,WUHU216HW,2013-02-03 07:04:00,
2013-02-03 00:08:00,26.6,19.7,30.00,West,270,0.0,5.1,75,0.00,,,0.00,WUHU216HW,2013-02-03 07:08:00,
2013-02-03 00:09:00,26.6,19.7,30.00,West,270,0.4,5.1,75,0.00,,,0.00,WUHU216HW,2013-02-03 07:09:00,
2013-02-03 00:13:00,26.6,19.7,30.00,NW,315,0.7,5.1,75,0.00,,,0.00,WUHU216HW,2013-02-03 07:13:00,
2013-02-03 00:14:00,26.6,19.7,30.00,North,0,0.7,5.1,75,0.00,,,0.00,WUHU216HW,2013-02-03 07:14:00,
2013-02-03 00:18:00,26.6,19.7,30.00,SE,135,2.5,4.5,75,0.00,,,0.00,WUHU216HW,2013-02-03 07:18:00,
2013-02-03 00:19:00,26.5,19.5,30.00,SW,225,1.6,4.5,75,0.00,,,0.00,WUHU216HW,2013-02-03 07:19:00,
2013-02-03 00:20:00,26.5,19.5,30.00,WSW,248,3.4,4.5,75,0.00,,,0.00,WUHU216HW,2013-02-03 07:20:00,
2013-02-03 00:23:00,26.1,18.9,30.00,SSE,158,1.1,4.7,74,0.00,,,0.00,WUHU216HW,2013-02-03 07:23:00,
2013-02-03 00:24:00,25.9,18.7,30.00,SE,135,3.8,4.7,74,0.00,,,0.00,WUHU216HW,2013-02-03 07:24:00,
2013-02-03 00:25:00,25.9,19.0,30.00,SE,135,4.5,4.7,75,0.00,,,0.00,WUHU216HW,2013-02-03 07:25:00,
2013-02-03 00:28:00,25.9,19.4,30.00,SSE,158,2.5,5.4,76,0.00,,,0.00,WUHU216HW,2013-02-03 07:28:00,
2013-02-03 00:29:00,25.9,19.0,29.99,SW,225,3.4,5.4,75,0.00,,,0.00,WUHU216HW,2013-02-03 07:29:00,
2013-02-03 00:30:00,25.9,19.0,29.99,SW,225,3.4,5.4,75,0.00,,,0.00,WUHU216HW,2013-02-03 07:30:00,
2013-02-03 00:33:00,25.9,19.0,29.99,SW,225,2.5,5.4,75,0.00,,,0.00,WUHU216HW,2013-02-03 07:33:00,
2013-02-03 00:35:00,25.9,19.0,29.99,WSW,248,3.8,5.4,75,0.00,,,0.00,WUHU216HW,2013-02-03 07:35:00,
2013-02-03 00:38:00,26.1,19.2,29.99,SSW,203,1.1,4.7,75,0.00,,,0.00,WUHU216HW,2013-02-03 07:38:00,
2013-02-03 00:40:00,26.1,19.2,29.99,WSW,248,4.0,4.7,75,0.00,,,0.00,WUHU216HW,2013-02-03 07:40:00,
2013-02-03 00:43:00,25.7,18.8,29.99,WSW,248,3.8,5.4,75,0.00,,,0.00,WUHU216HW,2013-02-03 07:43:00,
2013-02-03 00:45:00,25.7,18.8,29.99,WSW,248,2.2,5.4,75,0.00,,,0.00,WUHU216HW,2013-02-03 07:45:00,
2013-02-03 00:46:00,25.6,18.7,29.99,WSW,248,2.5,5.4,75,0.00,,,0.00,WUHU216HW,2013-02-03 07:46:00,
2013-02-03 00:49:00,25.6,18.7,29.99,West,270,2.7,5.4,75,0.00,,,0.00,WUHU216HW,2013-02-03 07:49:00,
2013-02-03 00:50:00,25.4,19.2,29.99,WNW,293,3.6,5.4,77,0.00,,,0.00,WUHU216HW,2013-02-03 07:50:00,
2013-02-03 00:51:00,25.4,19.2,29.99,WNW,293,2.5,4.9,77,0.00,,,0.00,WUHU216HW,2013-02-03 07:51:00,
2013-02-03 00:54:00,25.6,19.4,29.99,WSW,248,1.3,4.7,77,0.00,,,0.00,WUHU216HW,2013-02-03 07:54:00,
2013-02-03 00:55:00,25.6,19.4,29.99,West,270,2.5,4.7,77,0.00,,,0.00,WUHU216HW,2013-02-03 07:55:00,
2013-02-03 00:56:00,25.6,19.4,29.99,West,270,2.5,4.7,77,0.00,,,0.00,WUHU216HW,2013-02-03 07:56:00,
2013-02-03 00:59:00,25.6,19.4,29.98,East,90,2.5,4.7,77,0.00,,,0.00,WUHU216HW,2013-02-03 07:59:00,
2013-02-03 01:00:00,25.6,19.4,29.98,East,90,3.4,3.4,77,0.00,,,0.00,WUHU216HW,2013-02-03 08:00:00,
2013-02-03 01:01:00,25.6,19.4,29.98,East,90,3.4,3.4,77,0.00,,,0.00,WUHU216HW,2013-02-03 08:01:00,
2013-02-03 01:04:00,25.9,19.6,29.99,WSW,248,1.8,3.4,77,0.00,,,0.00,WUHU216HW,2013-02-03 08:04:00,
2013-02-03 01:05:00,25.9,19.6,29.98,WSW,248,0.4,3.4,77,0.00,,,0.00,WUHU216HW,2013-02-03 08:05:00,
2013-02-03 01:06:00,25.9,19.6,29.98,WSW,248,0.4,3.4,77,0.00,,,0.00,WUHU216HW,2013-02-03 08:06:00,
2013-02-03 01:09:00,26.1,20.4,29.98,ENE,68,0.0,4.0,79,0.00,,,0.00,WUHU216HW,2013-02-03 08:09:00,
2013-02-03 01:11:00,26.3,20.4,29.98,West,270,2.9,4.0,78,0.00,,,0.00,WUHU216HW,2013-02-03 08:11:00,
2013-02-03 01:15:00,25.6,19.0,29.98,West,270,0.4,4.3,76,0.00,,,0.00,WUHU216HW,2013-02-03 08:15:00,
2013-02-03 01:16:00,25.6,19.0,29.98,West,270,0.7,4.3,76,0.00,,,0.00,WUHU216HW,2013-02-03 08:16:00,
2013-02-03 01:20:00,25.2,18.4,29.98,West,270,3.4,5.4,75,0.00,,,0.00,WUHU216HW,2013-02-03 08:20:00,
2013-02-03 01:21:00,25.2,18.6,29.98,WNW,293,2.5,5.4,76,0.00,,,0.00,WUHU216HW,2013-02-03 08:21:00,
2013-02-03 01:25:00,25.4,19.2,29.97,West,270,1.8,5.4,77,0.00,,,0.00,WUHU216HW,2013-02-03 08:25:00,
2013-02-03 01:26:00,25.2,19.0,29.97,West,270,1.8,5.4,77,0.00,,,0.00,WUHU216HW,2013-02-03 08:26:00,
2013-02-03 01:27:00,25.4,19.2,29.97,West,270,0.7,5.4,77,0.00,,,0.00,WUHU216HW,2013-02-03 08:27:00,
2013-02-03 01:30:00,25.4,19.4,29.97,WSW,248,4.0,4.3,78,0.00,,,0.00,WUHU216HW,2013-02-03 08:30:00,
2013-02-03 01:31:00,25.4,19.4,29.97,West,270,4.7,4.7,78,0.00,,,0.00,WUHU216HW,2013-02-03 08:31:00,
2013-02-03 01:32:00,25.4,19.2,29.97,West,270,4.0,5.4,77,0.00,,,0.00,WUHU216HW,2013-02-03 08:32:00,
2013-02-03 01:36:00,25.2,19.3,29.97,NW,315,1.3,5.4,78,0.00,,,0.00,WUHU216HW,2013-02-03 08:36:00,
2013-02-03 01:37:00,25.2,19.3,29.97,NW,315,1.6,5.4,78,0.00,,,0.00,WUHU216HW,2013-02-03 08:37:00,
2013-02-03 01:38:00,25.2,19.3,29.97,NW,315,1.1,5.4,78,0.00,,,0.00,WUHU216HW,2013-02-03 08:38:00,
2013-02-03 01:41:00,25.0,18.8,29.97,WSW,248,1.8,5.4,77,0.00,,,0.00,WUHU216HW,2013-02-03 08:41:00,
2013-02-03 01:42:00,25.0,18.8,29.97,West,270,1.1,4.7,77,0.00,,,0.00,WUHU216HW,2013-02-03 08:42:00,
2013-02-03 01:43:00,24.8,18.6,29.97,West,270,2.2,4.0,77,0.00,,,0.00,WUHU216HW,2013-02-03 08:43:00,
2013-02-03 01:46:00,24.8,18.4,29.97,WSW,248,3.8,5.8,76,0.00,,,0.00,WUHU216HW,2013-02-03 08:46:00,
2013-02-03 01:47:00,24.8,18.4,29.97,SW,225,0.2,5.8,76,0.00,,,0.00,WUHU216HW,2013-02-03 08:47:00,
2013-02-03 01:48:00,25.0,18.8,29.97,ESE,113,1.8,5.8,77,0.00,,,0.00,WUHU216HW,2013-02-03 08:48:00,
2013-02-03 01:51:00,25.2,19.0,29.97,NE,45,0.4,5.8,77,0.00,,,0.00,WUHU216HW,2013-02-03 08:51:00,
2013-02-03 01:52:00,25.4,19.2,29.97,NE,45,0.0,5.8,77,0.00,,,0.00,WUHU216HW,2013-02-03 08:52:00,
2013-02-03 01:53:00,25.4,18.8,29.97,NE,45,0.0,5.8,76,0.00,,,0.00,WUHU216HW,2013-02-03 08:53:00,
2013-02-03 01:56:00,25.4,18.8,29.96,NNW,338,0.4,3.8,76,0.00,,,0.00,WUHU216HW,2013-02-03 08:56:00,
2013-02-03 01:57:00,25.4,18.6,29.97,WNW,293,2.9,2.9,75,0.00,,,0.00,WUHU216HW,2013-02-03 08:57:00,
2013-02-03 01:58:00,25.4,18.8,29.97,WNW,293,3.1,3.4,76,0.00,,,0.00,WUHU216HW,2013-02-03 08:58:00,
2013-02-03 02:01:00,25.4,18.8,29.97,West,270,0.7,4.5,76,0.00,,,0.00,WUHU216HW,2013-02-03 09:01:00,
2013-02-03 02:02:00,25.6,19.0,29.97,West,270,0.0,4.5,76,0.00,,,0.00,WUHU216HW,2013-02-03 09:02:00,
2013-02-03 02:03:00,25.6,18.7,29.96,West,270,0.0,4.5,75,0.00,,,0.00,WUHU216HW,2013-02-03 09:03:00,
2013-02-03 02:06:00,25.4,18.6,29.97,West,270,0.0,4.5,75,0.00,,,0.00,WUHU216HW,2013-02-03 09:06:00,
2013-02-03 02:07:00,25.4,18.6,29.97,West,270,0.0,4.5,75,0.00,,,0.00,WUHU216HW,2013-02-03 09:07:00,
2013-02-03 02:09:00,25.2,18.4,29.97,West,270,4.3,4.5,75,0.00,,,0.00,WUHU216HW,2013-02-03 09:09:00,
2013-02-03 02:12:00,25.0,18.8,29.96,WNW,293,0.4,4.9,77,0.00,,,0.00,WUHU216HW,2013-02-03 09:12:00,
2013-02-03 02:14:00,25.2,19.0,29.96,NNE,23,0.4,4.9,77,0.00,,,0.00,WUHU216HW,2013-02-03 09:14:00,
2013-02-03 02:17:00,25.2,18.6,29.96,West,270,1.8,4.9,76,0.00,,,0.00,WUHU216HW,2013-02-03 09:17:00,
2013-02-03 02:19:00,25.0,18.5,29.96,West,270,1.3,4.9,76,0.00,,,0.00,WUHU216HW,2013-02-03 09:19:00,
2013-02-03 02:22:00,24.7,18.2,29.96,WSW,248,4.7,4.7,76,0.00,,,0.00,WUHU216HW,2013-02-03 09:22:00,
2013-02-03 02:24:00,24.3,17.8,29.96,WSW,248,6.0,6.9,76,0.00,,,0.00,WUHU216HW,2013-02-03 09:24:00,
2013-02-03 02:27:00,24.1,17.7,29.96,WSW,248,3.4,6.9,76,0.00,,,0.00,WUHU216HW,2013-02-03 09:27:00,
2013-02-03 02:29:00,24.1,17.7,29.95,WSW,248,4.7,6.9,76,0.00,,,0.00,WUHU216HW,2013-02-03 09:29:00,
2013-02-03 02:32:00,24.3,18.1,29.95,West,270,1.1,6.9,77,0.00,,,0.00,WUHU216HW,2013-02-03 09:32:00,
2013-02-03 02:33:00,24.3,18.1,29.95,West,270,1.1,6.9,77,0.00,,,0.00,WUHU216HW,2013-02-03 09:33:00,
2013-02-03 02:34:00,24.3,18.1,29.95,WSW,248,5.4,5.6,77,0.00,,,0.00,WUHU216HW,2013-02-03 09:34:00,
2013-02-03 02:37:00,24.1,17.7,29.95,SW,225,0.9,5.8,76,0.00,,,0.00,WUHU216HW,2013-02-03 09:37:00,
2013-02-03 02:38:00,24.1,17.7,29.95,SW,225,1.6,5.8,76,0.00,,,0.00,WUHU216HW,2013-02-03 09:38:00,
2013-02-03 02:39:00,24.1,17.7,29.95,SW,225,0.9,5.8,76,0.00,,,0.00,WUHU216HW,2013-02-03 09:39:00,
2013-02-03 02:42:00,24.1,17.7,29.95,WSW,248,4.7,5.8,76,0.00,,,0.00,WUHU216HW,2013-02-03 09:42:00,
2013-02-03 02:43:00,24.1,17.7,29.95,West,270,4.3,5.8,76,0.00,,,0.00,WUHU216HW,2013-02-03 09:43:00,
2013-02-03 02:44:00,24.1,17.7,29.95,WSW,248,3.1,5.8,76,0.00,,,0.00,WUHU216HW,2013-02-03 09:44:00,
2013-02-03 02:47:00,23.8,17.3,29.95,WSW,248,5.4,6.9,76,0.00,,,0.00,WUHU216HW,2013-02-03 09:47:00,
2013-02-03 02:48:00,23.8,17.3,29.95,WSW,248,5.1,6.9,76,0.00,,,0.00,WUHU216HW,2013-02-03 09:48:00,
2013-02-03 02:49:00,23.8,17.3,29.95,WSW,248,4.0,6.9,76,0.00,,,0.00,WUHU216HW,2013-02-03 09:49:00,
2013-02-03 02:53:00,23.8,17.3,29.95,WSW,248,3.6,6.9,76,0.00,,,0.00,WUHU216HW,2013-02-03 09:53:00,
2013-02-03 02:54:00,23.8,17.3,29.95,WSW,248,3.4,6.9,76,0.00,,,0.00,WUHU216HW,2013-02-03 09:54:00,
2013-02-03 02:55:00,23.8,17.3,29.95,WSW,248,4.5,6.9,76,0.00,,,0.00,WUHU216HW,2013-02-03 09:55:00,
2013-02-03 02:58:00,24.1,17.7,29.95,WNW,293,2.9,6.5,76,0.00,,,0.00,WUHU216HW,2013-02-03 09:58:00,
2013-02-03 02:59:00,24.1,17.7,29.95,WNW,293,1.8,6.5,76,0.00,,,0.00,WUHU216HW,2013-02-03 09:59:00,
2013-02-03 03:00:00,24.1,17.7,29.95,WSW,248,3.6,6.5,76,0.00,,,0.00,WUHU216HW,2013-02-03 10:00:00,
2013-02-03 03:03:00,24.3,17.8,29.94,SSW,203,2.5,6.5,76,0.00,,,0.00,WUHU216HW,2013-02-03 10:03:00,
2013-02-03 03:04:00,24.3,17.8,29.94,SW,225,1.6,6.5,76,0.00,,,0.00,WUHU216HW,2013-02-03 10:04:00,
2013-02-03 03:05:00,24.3,17.8,29.94,West,270,4.0,6.5,76,0.00,,,0.00,WUHU216HW,2013-02-03 10:05:00,
2013-02-03 03:08:00,24.5,18.3,29.94,West,270,2.2,5.1,77,0.00,,,0.00,WUHU216HW,2013-02-03 10:08:00,
2013-02-03 03:09:00,24.7,18.5,29.94,West,270,2.2,5.1,77,0.00,,,0.00,WUHU216HW,2013-02-03 10:09:00,
2013-02-03 03:10:00,24.8,18.4,29.94,WSW,248,0.4,5.1,76,0.00,,,0.00,WUHU216HW,2013-02-03 10:10:00,
2013-02-03 03:13:00,24.8,18.4,29.94,SW,225,0.4,4.7,76,0.00,,,0.00,WUHU216HW,2013-02-03 10:13:00,
2013-02-03 03:14:00,24.8,18.4,29.94,WSW,248,0.9,4.7,76,0.00,,,0.00,WUHU216HW,2013-02-03 10:14:00,
2013-02-03 03:15:00,24.8,18.0,29.94,West,270,0.9,4.7,75,0.00,,,0.00,WUHU216HW,2013-02-03 10:15:00,
2013-02-03 03:18:00,24.8,18.0,29.93,East,90,1.1,2.2,75,0.00,,,0.00,WUHU216HW,2013-02-03 10:18:00,
2013-02-03 03:19:00,24.8,18.0,29.93,East,90,0.7,2.2,75,0.00,,,0.00,WUHU216HW,2013-02-03 10:19:00,
2013-02-03 03:20:00,24.8,18.0,29.93,WSW,248,2.0,2.2,75,0.00,,,0.00,WUHU216HW,2013-02-03 10:20:00,
2013-02-03 03:23:00,24.3,17.5,29.93,WSW,248,1.1,4.5,75,0.00,,,0.00,WUHU216HW,2013-02-03 10:23:00,
2013-02-03 03:24:00,24.3,17.5,29.93,West,270,1.1,4.5,75,0.00,,,0.00,WUHU216HW,2013-02-03 10:24:00,
2013-02-03 03:25:00,24.3,17.5,29.93,West,270,2.2,4.5,75,0.00,,,0.00,WUHU216HW,2013-02-03 10:25:00,
2013-02-03 03:29:00,24.1,17.3,29.93,West,270,1.3,4.9,75,0.00,,,0.00,WUHU216HW,2013-02-03 10:29:00,
2013-02-03 03:30:00,24.1,17.3,29.92,West,270,0.7,4.9,75,0.00,,,0.00,WUHU216HW,2013-02-03 10:30:00,
2013-02-03 03:34:00,24.1,17.3,29.92,West,270,3.1,4.9,75,0.00,,,0.00,WUHU216HW,2013-02-03 10:34:00,
2013-02-03 03:35:00,24.1,17.3,29.93,West,270,2.9,4.9,75,0.00,,,0.00,WUHU216HW,2013-02-03 10:35:00,
2013-02-03 03:39:00,23.9,16.8,29.92,WSW,248,0.0,3.1,74,0.00,,,0.00,WUHU216HW,2013-02-03 10:39:00,
2013-02-03 03:40:00,23.9,17.1,29.92,WSW,248,0.0,3.1,75,0.00,,,0.00,WUHU216HW,2013-02-03 10:40:00,
2013-02-03 03:44:00,23.8,16.7,29.92,SW,225,3.8,6.0,74,0.00,,,0.00,WUHU216HW,2013-02-03 10:44:00,
2013-02-03 03:45:00,23.8,17.0,29.92,SW,225,2.0,6.0,75,0.00,,,0.00,WUHU216HW,2013-02-03 10:45:00,
2013-02-03 03:49:00,23.8,17.0,29.92,WSW,248,3.8,6.0,75,0.00,,,0.00,WUHU216HW,2013-02-03 10:49:00,
2013-02-03 03:50:00,23.8,17.0,29.91,WSW,248,0.4,6.0,75,0.00,,,0.00,WUHU216HW,2013-02-03 10:50:00,
2013-02-03 03:54:00,23.6,16.8,29.91,SW,225,3.4,5.4,75,0.00,,,0.00,WUHU216HW,2013-02-03 10:54:00,
2013-02-03 03:55:00,23.6,16.8,29.90,WSW,248,4.0,5.4,75,0.00,,,0.00,WUHU216HW,2013-02-03 10:55:00,
2013-02-03 03:56:00,23.6,16.8,29.90,WSW,248,3.4,5.4,75,0.00,,,0.00,WUHU216HW,2013-02-03 10:56:00,
2013-02-03 03:59:00,23.4,16.7,29.90,WSW,248,3.1,4.0,75,0.00,,,0.00,WUHU216HW,2013-02-03 10:59:00,
2013-02-03 04:00:00,23.4,16.7,29.90,WSW,248,2.7,4.0,75,0.00,,,0.00,WUHU216HW,2013-02-03 11:00:00,
2013-02-03 04:01:00,23.4,16.7,29.90,WSW,248,2.2,4.0,75,0.00,,,0.00,WUHU216HW,2013-02-03 11:01:00,
2013-02-03 04:04:00,23.4,16.7,29.90,SSE,158,1.3,4.0,75,0.00,,,0.00,WUHU216HW,2013-02-03 11:04:00,
2013-02-03 04:05:00,23.2,16.5,29.90,SW,225,1.6,4.0,75,0.00,,,0.00,WUHU216HW,2013-02-03 11:05:00,
2013-02-03 04:06:00,23.4,16.7,29.90,SW,225,1.6,3.4,75,0.00,,,0.00,WUHU216HW,2013-02-03 11:06:00,
2013-02-03 04:09:00,23.2,16.5,29.90,SSW,203,1.8,4.9,75,0.00,,,0.00,WUHU216HW,2013-02-03 11:09:00,
2013-02-03 04:10:00,23.2,16.5,29.90,SSW,203,1.6,4.9,75,0.00,,,0.00,WUHU216HW,2013-02-03 11:10:00,
2013-02-03 04:11:00,23.2,16.5,29.90,SW,225,1.8,4.9,75,0.00,,,0.00,WUHU216HW,2013-02-03 11:11:00,
2013-02-03 04:14:00,23.2,16.5,29.90,SSE,158,1.1,4.9,75,0.00,,,0.00,WUHU216HW,2013-02-03 11:14:00,
2013-02-03 04:15:00,23.2,16.5,29.90,SSE,158,1.3,4.9,75,0.00,,,0.00,WUHU216HW,2013-02-03 11:15:00,
2013-02-03 04:16:00,23.2,16.5,29.90,SSE,158,0.9,4.9,75,0.00,,,0.00,WUHU216HW,2013-02-03 11:16:00,
2013-02-03 04:19:00,23.2,16.7,29.90,WSW,248,3.4,5.8,76,0.00,,,0.00,WUHU216HW,2013-02-03 11:19:00,
2013-02-03 04:20:00,23.0,16.6,29.90,SSW,203,2.0,5.8,76,0.00,,,0.00,WUHU216HW,2013-02-03 11:20:00,
2013-02-03 04:21:00,23.2,16.7,29.90,South,180,2.0,5.8,76,0.00,,,0.00,WUHU216HW,2013-02-03 11:21:00,
2013-02-03 04:25:00,23.0,16.9,29.90,WSW,248,2.2,5.8,77,0.00,,,0.00,WUHU216HW,2013-02-03 11:25:00,
2013-02-03 04:26:00,23.0,16.6,29.90,WSW,248,1.1,5.8,76,0.00,,,0.00,WUHU216HW,2013-02-03 11:26:00,
2013-02-03 04:30:00,23.2,16.7,29.90,SW,225,1.8,3.6,76,0.00,,,0.00,WUHU216HW,2013-02-03 11:30:00,
2013-02-03 04:31:00,23.2,16.7,29.90,SW,225,1.8,3.6,76,0.00,,,0.00,WUHU216HW,2013-02-03 11:31:00,
2013-02-03 04:32:00,23.2,16.7,29.90,SW,225,1.3,3.6,76,0.00,,,0.00,WUHU216HW,2013-02-03 11:32:00,
2013-02-03 04:35:00,23.2,16.7,29.90,South,180,1.3,2.5,76,0.00,,,0.00,WUHU216HW,2013-02-03 11:35:00,
2013-02-03 04:36:00,23.2,16.7,29.90,SSE,158,1.8,2.5,76,0.00,,,0.00,WUHU216HW,2013-02-03 11:36:00,
2013-02-03 04:37:00,23.2,16.7,29.90,South,180,1.6,2.5,76,0.00,,,0.00,WUHU216HW,2013-02-03 11:37:00,
2013-02-03 04:40:00,23.2,16.7,29.89,SW,225,2.5,2.7,76,0.00,,,0.00,WUHU216HW,2013-02-03 11:40:00,
2013-02-03 04:41:00,23.2,16.7,29.89,SSW,203,3.1,3.1,76,0.00,,,0.00,WUHU216HW,2013-02-03 11:41:00,
2013-02-03 04:42:00,23.2,16.7,29.89,SSW,203,2.9,3.1,76,0.00,,,0.00,WUHU216HW,2013-02-03 11:42:00,
2013-02-03 04:45:00,23.0,16.6,29.89,SW,225,1.1,3.1,76,0.00,,,0.00,WUHU216HW,2013-02-03 11:45:00,
2013-02-03 04:46:00,23.2,16.7,29.89,SW,225,1.6,3.1,76,0.00,,,0.00,WUHU216HW,2013-02-03 11:46:00,
2013-02-03 04:47:00,23.2,17.1,29.89,SW,225,1.8,3.1,77,0.00,,,0.00,WUHU216HW,2013-02-03 11:47:00,
2013-02-03 04:50:00,23.2,17.1,29.89,West,270,2.5,3.1,77,0.00,,,0.00,WUHU216HW,2013-02-03 11:50:00,
2013-02-03 04:51:00,23.2,17.1,29.89,West,270,2.2,3.1,77,0.00,,,0.00,WUHU216HW,2013-02-03 11:51:00,
2013-02-03 04:52:00,23.2,17.1,29.89,West,270,0.4,2.9,77,0.00,,,0.00,WUHU216HW,2013-02-03 11:52:00,
2013-02-03 04:55:00,23.2,17.1,29.89,SE,135,0.9,2.7,77,0.00,,,0.00,WUHU216HW,2013-02-03 11:55:00,
2013-02-03 04:56:00,23.2,17.1,29.89,SW,225,1.3,2.7,77,0.00,,,0.00,WUHU216HW,2013-02-03 11:56:00,
2013-02-03 04:57:00,23.2,17.1,29.89,SW,225,1.3,2.7,77,0.00,,,0.00,WUHU216HW,2013-02-03 11:57:00,
2013-02-03 05:00:00,23.0,16.9,29.89,WSW,248,3.8,4.3,77,0.00,,,0.00,WUHU216HW,2013-02-03 12:00:00,
2013-02-03 05:01:00,22.9,16.8,29.89,WSW,248,3.4,4.3,77,0.00,,,0.00,WUHU216HW,2013-02-03 12:01:00,
2013-02-03 05:02:00,22.9,16.8,29.89,West,270,4.0,4.3,77,0.00,,,0.00,WUHU216HW,2013-02-03 12:02:00,
2013-02-03 05:03:00,22.7,16.8,29.89,West,270,6.7,6.7,78,0.00,,,0.00,WUHU216HW,2013-02-03 12:03:00,
2013-02-03 05:05:00,22.7,16.8,29.89,WSW,248,2.9,7.6,78,0.00,,,0.00,WUHU216HW,2013-02-03 12:05:00,
2013-02-03 05:07:00,22.5,16.4,29.89,WSW,248,0.7,7.6,77,0.00,,,0.00,WUHU216HW,2013-02-03 12:07:00,
2013-02-03 05:08:00,22.5,16.7,29.88,WNW,293,3.4,7.6,78,0.00,,,0.00,WUHU216HW,2013-02-03 12:08:00,
2013-02-03 05:10:00,22.7,16.8,29.89,West,270,4.0,7.6,78,0.00,,,0.00,WUHU216HW,2013-02-03 12:10:00,
2013-02-03 05:12:00,22.9,17.0,29.88,West,270,0.4,7.6,78,0.00,,,0.00,WUHU216HW,2013-02-03 12:12:00,
2013-02-03 05:13:00,23.0,16.9,29.88,West,270,1.8,7.6,77,0.00,,,0.00,WUHU216HW,2013-02-03 12:13:00,
2013-02-03 05:16:00,23.0,16.9,29.88,WNW,293,0.9,6.3,77,0.00,,,0.00,WUHU216HW,2013-02-03 12:16:00,
2013-02-03 05:17:00,23.0,17.2,29.88,North,0,2.5,6.3,78,0.00,,,0.00,WUHU216HW,2013-02-03 12:17:00,
2013-02-03 05:18:00,23.0,17.2,29.88,North,0,0.4,6.3,78,0.00,,,0.00,WUHU216HW,2013-02-03 12:18:00,
2013-02-03 05:21:00,22.9,16.8,29.87,NW,315,2.5,5.4,77,0.00,,,0.00,WUHU216HW,2013-02-03 12:21:00,
2013-02-03 05:22:00,22.7,16.6,29.87,NNW,338,1.6,5.4,77,0.00,,,0.00,WUHU216HW,2013-02-03 12:22:00,
2013-02-03 05:23:00,22.7,16.6,29.87,NNW,338,1.8,5.4,77,0.00,,,0.00,WUHU216HW,2013-02-03 12:23:00,
2013-02-03 05:24:00,22.7,16.6,29.87,NW,315,1.6,5.4,77,0.00,,,0.00,WUHU216HW,2013-02-03 12:24:00,
2013-02-03 05:26:00,22.7,16.8,29.87,North,0,2.0,5.4,78,0.00,,,0.00,WUHU216HW,2013-02-03 12:26:00,
2013-02-03 05:27:00,22.7,16.8,29.87,NNW,338,1.8,5.4,78,0.00,,,0.00,WUHU216HW,2013-02-03 12:27:00,
2013-02-03 05:28:00,22.7,16.8,29.87,NNW,338,1.8,5.4,78,0.00,,,0.00,WUHU216HW,2013-02-03 12:28:00,
2013-02-03 05:29:00,22.7,16.8,29.87,NNW,338,1.6,5.4,78,0.00,,,0.00,WUHU216HW,2013-02-03 12:29:00,
2013-02-03 05:31:00,22.9,17.0,29.87,West,270,2.5,2.5,78,0.00,,,0.00,WUHU216HW,2013-02-03 12:31:00,
2013-02-03 05:32:00,22.9,17.0,29.87,West,270,4.9,4.9,78,0.00,,,0.00,WUHU216HW,2013-02-03 12:32:00,
2013-02-03 05:33:00,22.7,16.8,29.87,West,270,6.5,6.5,78,0.00,,,0.00,WUHU216HW,2013-02-03 12:33:00,
2013-02-03 05:34:00,22.7,16.8,29.86,WSW,248,6.0,6.5,78,0.00,,,0.00,WUHU216HW,2013-02-03 12:34:00,
2013-02-03 05:36:00,22.7,17.2,29.86,West,270,4.0,6.5,79,0.00,,,0.00,WUHU216HW,2013-02-03 12:36:00,
2013-02-03 05:38:00,23.0,17.6,29.86,WSW,248,3.1,6.5,79,0.00,,,0.00,WUHU216HW,2013-02-03 12:38:00,
2013-02-03 05:39:00,23.0,17.6,29.86,SW,225,2.5,6.5,79,0.00,,,0.00,WUHU216HW,2013-02-03 12:39:00,
2013-02-03 05:41:00,23.4,17.9,29.86,WSW,248,2.5,6.5,79,0.00,,,0.00,WUHU216HW,2013-02-03 12:41:00,
2013-02-03 05:43:00,23.4,17.6,29.85,SSW,203,2.9,6.5,78,0.00,,,0.00,WUHU216HW,2013-02-03 12:43:00,
2013-02-03 05:44:00,23.6,17.7,29.85,SW,225,3.6,6.5,78,0.00,,,0.00,WUHU216HW,2013-02-03 12:44:00,
2013-02-03 05:46:00,23.6,17.7,29.85,South,180,2.5,5.1,78,0.00,,,0.00,WUHU216HW,2013-02-03 12:46:00,
2013-02-03 05:48:00,23.8,17.9,29.85,SW,225,2.0,5.1,78,0.00,,,0.00,WUHU216HW,2013-02-03 12:48:00,
2013-02-03 05:49:00,23.8,17.9,29.85,SSW,203,1.8,5.1,78,0.00,,,0.00,WUHU216HW,2013-02-03 12:49:00,
2013-02-03 05:51:00,23.8,18.3,29.85,West,270,4.5,5.1,79,0.00,,,0.00,WUHU216HW,2013-02-03 12:51:00,
2013-02-03 05:53:00,23.8,18.3,29.85,West,270,4.9,5.1,79,0.00,,,0.00,WUHU216HW,2013-02-03 12:53:00,
2013-02-03 05:54:00,23.8,17.7,29.85,West,270,5.1,5.4,77,0.00,,,0.00,WUHU216HW,2013-02-03 12:54:00,
2013-02-03 05:56:00,23.6,17.5,29.85,WSW,248,4.0,5.4,77,0.00,,,0.00,WUHU216HW,2013-02-03 12:56:00,
2013-02-03 05:58:00,23.4,17.3,29.85,SW,225,4.7,5.4,77,0.00,,,0.00,WUHU216HW,2013-02-03 12:58:00,
2013-02-03 05:59:00,23.4,17.3,29.85,WSW,248,2.5,5.4,77,0.00,,,0.00,WUHU216HW,2013-02-03 12:59:00,
2013-02-03 06:02:00,23.2,17.1,29.85,West,270,6.3,6.3,77,0.00,,,0.00,WUHU216HW,2013-02-03 13:02:00,
2013-02-03 06:03:00,23.0,16.9,29.84,West,270,6.0,7.8,77,0.00,,,0.00,WUHU216HW,2013-02-03 13:03:00,
2013-02-03 06:04:00,23.0,16.9,29.84,West,270,4.5,7.8,77,0.00,,,0.00,WUHU216HW,2013-02-03 13:04:00,
2013-02-03 06:07:00,22.9,16.8,29.84,West,270,4.0,7.8,77,0.00,,,0.00,WUHU216HW,2013-02-03 13:07:00,
2013-02-03 06:08:00,22.9,16.8,29.84,West,270,5.8,7.8,77,0.00,,,0.00,WUHU216HW,2013-02-03 13:08:00,
2013-02-03 06:09:00,22.9,16.8,29.84,WNW,293,7.2,7.8,77,0.00,,,0.00,WUHU216HW,2013-02-03 13:09:00,
2013-02-03 06:12:00,23.4,17.6,29.84,NW,315,0.4,7.6,78,0.00,,,0.00,WUHU216HW,2013-02-03 13:12:00,
2013-02-03 06:13:00,23.4,17.6,29.84,NW,315,1.6,7.4,78,0.00,,,0.00,WUHU216HW,2013-02-03 13:13:00,
2013-02-03 06:14:00,23.4,17.6,29.84,WNW,293,5.4,7.4,78,0.00,,,0.00,WUHU216HW,2013-02-03 13:14:00,
2013-02-03 06:18:00,23.6,17.7,29.84,WNW,293,0.2,7.4,78,0.00,,,0.00,WUHU216HW,2013-02-03 13:18:00,
2013-02-03 06:19:00,23.6,17.7,29.84,WNW,293,2.5,7.4,78,0.00,,,0.00,WUHU216HW,2013-02-03 13:19:00,
2013-02-03 06:23:00,23.4,17.6,29.84,NNE,23,3.1,5.4,78,0.00,,,0.00,WUHU216HW,2013-02-03 13:23:00,
2013-02-03 06:24:00,23.4,17.6,29.84,North,0,3.4,5.4,78,0.00,,,0.00,WUHU216HW,2013-02-03 13:24:00,
2013-02-03 06:28:00,23.2,17.4,29.85,NNW,338,6.7,6.9,78,0.00,,,0.00,WUHU216HW,2013-02-03 13:28:00,
2013-02-03 06:29:00,23.2,17.4,29.85,NNW,338,6.7,6.9,78,0.00,,,0.00,WUHU216HW,2013-02-03 13:29:00,
2013-02-03 06:33:00,23.6,18.4,29.84,NNW,338,3.4,6.9,80,0.00,,,0.00,WUHU216HW,2013-02-03 13:33:00,
2013-02-03 06:34:00,23.6,18.4,29.84,NW,315,4.0,6.9,80,0.00,,,0.00,WUHU216HW,2013-02-03 13:34:00,
2013-02-03 06:38:00,23.8,18.5,29.84,NNW,338,3.4,6.7,80,0.00,,,0.00,WUHU216HW,2013-02-03 13:38:00,
2013-02-03 06:39:00,23.8,18.5,29.84,NNW,338,3.4,6.7,80,0.00,,,0.00,WUHU216HW,2013-02-03 13:39:00,
2013-02-03 06:40:00,23.9,18.7,29.85,NW,315,3.4,6.3,80,0.00,,,0.00,WUHU216HW,2013-02-03 13:40:00,
2013-02-03 06:44:00,23.8,18.3,29.85,NNW,338,1.8,6.0,79,0.00,,,0.00,WUHU216HW,2013-02-03 13:44:00,
2013-02-03 06:45:00,23.8,18.3,29.85,NW,315,0.4,6.0,79,0.00,,,0.00,WUHU216HW,2013-02-03 13:45:00,
2013-02-03 06:46:00,23.8,18.3,29.84,West,270,2.2,6.0,79,0.00,,,0.00,WUHU216HW,2013-02-03 13:46:00,
2013-02-03 06:49:00,23.8,17.9,29.85,West,270,1.1,6.0,78,0.00,,,0.00,WUHU216HW,2013-02-03 13:49:00,
2013-02-03 06:50:00,23.6,17.7,29.85,NW,315,0.7,6.0,78,0.00,,,0.00,WUHU216HW,2013-02-03 13:50:00,
2013-02-03 06:51:00,23.6,17.7,29.85,WNW,293,3.4,6.0,78,0.00,,,0.00,WUHU216HW,2013-02-03 13:51:00,
2013-02-03 06:54:00,23.4,17.6,29.84,West,270,4.0,5.6,78,0.00,,,0.00,WUHU216HW,2013-02-03 13:54:00,
2013-02-03 06:55:00,23.4,17.6,29.85,WNW,293,0.9,5.6,78,0.00,,,0.00,WUHU216HW,2013-02-03 13:55:00,
2013-02-03 06:56:00,23.4,17.6,29.84,NW,315,3.8,5.6,78,0.00,,,0.00,WUHU216HW,2013-02-03 13:56:00,
2013-02-03 06:59:00,23.4,18.2,29.85,NW,315,5.4,6.9,80,0.00,,,0.00,WUHU216HW,2013-02-03 13:59:00,
2013-02-03 07:00:00,23.6,18.4,29.85,NW,315,4.0,6.9,80,0.00,,,0.00,WUHU216HW,2013-02-03 14:00:00,
2013-02-03 07:01:00,23.6,18.4,29.84,NW,315,6.3,6.9,80,0.00,,,0.00,WUHU216HW,2013-02-03 14:01:00,
2013-02-03 07:04:00,23.9,18.7,29.84,NW,315,6.3,6.9,80,0.00,,,0.00,WUHU216HW,2013-02-03 14:04:00,
2013-02-03 07:05:00,24.1,18.9,29.84,NW,315,5.6,6.9,80,0.00,,,0.00,WUHU216HW,2013-02-03 14:05:00,
2013-02-03 07:06:00,24.1,18.9,29.84,WNW,293,6.0,6.9,80,0.00,,,0.00,WUHU216HW,2013-02-03 14:06:00,
2013-02-03 07:09:00,24.1,18.9,29.85,NW,315,6.9,7.6,80,0.00,,,0.00,WUHU216HW,2013-02-03 14:09:00,
2013-02-03 07:10:00,24.1,18.5,29.85,NW,315,6.7,7.6,79,0.00,,,0.00,WUHU216HW,2013-02-03 14:10:00,
2013-02-03 07:11:00,24.1,18.9,29.85,NW,315,6.3,7.6,80,0.00,,,0.00,WUHU216HW,2013-02-03 14:11:00,
2013-02-03 07:12:00,24.1,18.9,29.85,NW,315,6.9,7.6,80,0.00,,,0.00,WUHU216HW,2013-02-03 14:12:00,
2013-02-03 07:14:00,23.9,18.7,29.85,NW,315,8.1,8.3,80,0.00,,,0.00,WUHU216HW,2013-02-03 14:14:00,
2013-02-03 07:15:00,23.8,18.5,29.85,NW,315,8.3,8.3,80,0.00,,,0.00,WUHU216HW,2013-02-03 14:15:00,
2013-02-03 07:16:00,23.8,18.5,29.85,NW,315,6.5,8.3,80,0.00,,,0.00,WUHU216HW,2013-02-03 14:16:00,
2013-02-03 07:17:00,23.9,19.0,29.85,NW,315,7.8,8.7,81,0.00,,,0.00,WUHU216HW,2013-02-03 14:17:00,
2013-02-03 07:19:00,24.1,19.2,29.85,WNW,293,6.3,8.7,81,0.00,,,0.00,WUHU216HW,2013-02-03 14:19:00,
2013-02-03 07:21:00,24.1,19.2,29.85,WNW,293,5.4,8.7,81,0.00,,,0.00,WUHU216HW,2013-02-03 14:21:00,
2013-02-03 07:22:00,24.3,19.1,29.85,West,270,6.7,8.7,80,0.00,,,0.00,WUHU216HW,2013-02-03 14:22:00,
2013-02-03 07:25:00,24.3,19.1,29.85,WNW,293,6.0,8.7,80,0.00,,,0.00,WUHU216HW,2013-02-03 14:25:00,
2013-02-03 07:26:00,24.3,18.7,29.85,NNW,338,3.1,8.7,79,0.00,,,0.00,WUHU216HW,2013-02-03 14:26:00,
2013-02-03 07:27:00,24.1,18.5,29.85,NNW,338,2.9,7.8,79,0.00,,,0.00,WUHU216HW,2013-02-03 14:27:00,
2013-02-03 07:30:00,24.1,18.5,29.85,NNW,338,4.7,6.7,79,0.00,,,0.00,WUHU216HW,2013-02-03 14:30:00,
2013-02-03 07:31:00,24.1,18.5,29.85,NNW,338,7.4,7.4,79,0.00,,,0.00,WUHU216HW,2013-02-03 14:31:00,
2013-02-03 07:32:00,24.1,18.5,29.85,NW,315,6.5,7.4,79,0.00,,,0.00,WUHU216HW,2013-02-03 14:32:00,
2013-02-03 07:35:00,24.1,18.9,29.85,NNW,338,5.8,7.8,80,0.00,,,0.00,WUHU216HW,2013-02-03 14:35:00,
2013-02-03 07:36:00,24.1,18.9,29.85,NNW,338,7.6,7.8,80,0.00,,,0.00,WUHU216HW,2013-02-03 14:36:00,
2013-02-03 07:37:00,24.1,18.9,29.86,NW,315,8.5,9.2,80,0.00,,,0.00,WUHU216HW,2013-02-03 14:37:00,
2013-02-03 07:40:00,24.3,19.1,29.86,NNW,338,6.5,9.2,80,0.00,,,0.00,WUHU216HW,2013-02-03 14:40:00,
2013-02-03 07:41:00,24.3,19.1,29.86,NNW,338,6.9,9.2,80,0.00,,,0.00,WUHU216HW,2013-02-03 14:41:00,
2013-02-03 07:42:00,24.3,18.7,29.86,NNW,338,5.8,9.2,79,0.00,,,0.00,WUHU216HW,2013-02-03 14:42:00,
2013-02-03 07:45:00,24.5,18.9,29.86,NW,315,6.9,9.2,79,0.00,,,0.00,WUHU216HW,2013-02-03 14:45:00,
2013-02-03 07:46:00,24.5,18.9,29.86,NW,315,6.5,9.2,79,0.00,,,0.00,WUHU216HW,2013-02-03 14:46:00,
2013-02-03 07:47:00,24.7,19.1,29.86,WNW,293,6.5,8.5,79,0.00,,,0.00,WUHU216HW,2013-02-03 14:47:00,
2013-02-03 07:51:00,24.8,19.0,29.86,WNW,293,5.8,7.6,78,0.00,,,0.00,WUHU216HW,2013-02-03 14:51:00,
2013-02-03 07:52:00,24.8,19.0,29.87,West,270,6.9,7.6,78,0.00,,,0.00,WUHU216HW,2013-02-03 14:52:00,
2013-02-03 07:56:00,24.8,19.0,29.87,WSW,248,7.4,7.6,78,0.00,,,0.00,WUHU216HW,2013-02-03 14:56:00,
2013-02-03 07:57:00,25.0,19.2,29.87,WNW,293,5.4,7.6,78,0.00,,,0.00,WUHU216HW,2013-02-03 14:57:00,
2013-02-03 08:01:00,25.2,19.0,29.87,West,270,6.3,7.8,77,0.00,,,0.00,WUHU216HW,2013-02-03 15:01:00,
2013-02-03 08:02:00,25.2,19.0,29.87,WNW,293,5.4,7.8,77,0.00,,,0.00,WUHU216HW,2013-02-03 15:02:00,
2013-02-03 08:03:00,25.2,19.0,29.87,WNW,293,6.9,7.8,77,0.00,,,0.00,WUHU216HW,2013-02-03 15:03:00,
2013-02-03 08:06:00,25.4,18.8,29.86,West,270,6.3,7.8,76,0.00,,,0.00,WUHU216HW,2013-02-03 15:06:00,
2013-02-03 08:07:00,25.4,18.8,29.86,West,270,6.7,7.8,76,0.00,,,0.00,WUHU216HW,2013-02-03 15:07:00,
2013-02-03 08:08:00,25.4,18.8,29.86,West,270,6.7,7.8,76,0.00,,,0.00,WUHU216HW,2013-02-03 15:08:00,
2013-02-03 08:11:00,25.6,19.0,29.87,NW,315,3.1,7.4,76,0.00,,,0.00,WUHU216HW,2013-02-03 15:11:00,
2013-02-03 08:12:00,25.4,18.8,29.87,NW,315,3.1,7.4,76,0.00,,,0.00,WUHU216HW,2013-02-03 15:12:00,
2013-02-03 08:13:00,25.6,19.0,29.87,NW,315,2.9,7.4,76,0.00,,,0.00,WUHU216HW,2013-02-03 15:13:00,
2013-02-03 08:16:00,25.6,19.0,29.87,NW,315,4.7,6.7,76,0.00,,,0.00,WUHU216HW,2013-02-03 15:16:00,
2013-02-03 08:17:00,25.6,19.0,29.87,NW,315,4.7,6.7,76,0.00,,,0.00,WUHU216HW,2013-02-03 15:17:00,
2013-02-03 08:18:00,25.6,19.0,29.87,NNW,338,4.7,5.4,76,0.00,,,0.00,WUHU216HW,2013-02-03 15:18:00,
2013-02-03 08:19:00,25.6,19.0,29.87,NNW,338,4.7,5.1,76,0.00,,,0.00,WUHU216HW,2013-02-03 15:19:00,
2013-02-03 08:21:00,25.7,19.2,29.87,NW,315,4.5,4.7,76,0.00,,,0.00,WUHU216HW,2013-02-03 15:21:00,
2013-02-03 08:22:00,25.7,18.8,29.87,WNW,293,4.5,5.1,75,0.00,,,0.00,WUHU216HW,2013-02-03 15:22:00,
2013-02-03 08:24:00,25.7,18.8,29.87,WNW,293,5.1,5.1,75,0.00,,,0.00,WUHU216HW,2013-02-03 15:24:00,
2013-02-03 08:26:00,25.9,19.0,29.87,NW,315,5.1,6.0,75,0.00,,,0.00,WUHU216HW,2013-02-03 15:26:00,
2013-02-03 08:28:00,25.9,19.0,29.87,WNW,293,3.8,6.0,75,0.00,,,0.00,WUHU216HW,2013-02-03 15:28:00,
2013-02-03 08:29:00,26.1,19.2,29.87,WNW,293,2.7,6.0,75,0.00,,,0.00,WUHU216HW,2013-02-03 15:29:00,
2013-02-03 08:31:00,26.3,19.4,29.87,WNW,293,1.6,6.0,75,0.00,,,0.00,WUHU216HW,2013-02-03 15:31:00,
2013-02-03 08:33:00,26.3,19.4,29.87,NNW,338,0.9,6.0,75,0.00,,,0.00,WUHU216HW,2013-02-03 15:33:00,
2013-02-03 08:34:00,26.3,19.4,29.87,NNW,338,1.1,6.0,75,0.00,,,0.00,WUHU216HW,2013-02-03 15:34:00,
2013-02-03 08:36:00,26.5,19.5,29.87,NW,315,1.8,5.1,75,0.00,,,0.00,WUHU216HW,2013-02-03 15:36:00,
2013-02-03 08:38:00,26.3,19.4,29.87,WNW,293,1.6,3.6,75,0.00,,,0.00,WUHU216HW,2013-02-03 15:38:00,
2013-02-03 08:39:00,26.3,19.4,29.87,WNW,293,1.3,3.4,75,0.00,,,0.00,WUHU216HW,2013-02-03 15:39:00,
2013-02-03 08:40:00,26.3,19.4,29.87,WNW,293,0.9,2.0,75,0.00,,,0.00,WUHU216HW,2013-02-03 15:40:00,
2013-02-03 08:41:00,26.3,19.4,29.87,NNW,338,0.9,1.8,75,0.00,,,0.00,WUHU216HW,2013-02-03 15:41:00,
2013-02-03 08:43:00,26.3,19.1,29.87,NNE,23,2.0,2.5,74,0.00,,,0.00,WUHU216HW,2013-02-03 15:43:00,
2013-02-03 08:44:00,26.3,19.1,29.87,NNE,23,2.2,2.5,74,0.00,,,0.00,WUHU216HW,2013-02-03 15:44:00,
2013-02-03 08:45:00,26.3,19.1,29.87,NNE,23,1.8,2.5,74,0.00,,,0.00,WUHU216HW,2013-02-03 15:45:00,
2013-02-03 08:47:00,26.6,19.5,29.87,NNE,23,0.4,2.5,74,0.00,,,0.00,WUHU216HW,2013-02-03 15:47:00,
2013-02-03 08:48:00,26.6,19.5,29.87,North,0,0.4,2.5,74,0.00,,,0.00,WUHU216HW,2013-02-03 15:48:00,
2013-02-03 08:49:00,26.6,19.5,29.87,North,0,0.9,2.5,74,0.00,,,0.00,WUHU216HW,2013-02-03 15:49:00,
2013-02-03 08:50:00,26.8,19.6,29.87,NW,315,1.3,2.5,74,0.00,,,0.00,WUHU216HW,2013-02-03 15:50:00,
2013-02-03 08:52:00,26.8,19.6,29.87,NW,315,0.7,2.5,74,0.00,,,0.00,WUHU216HW,2013-02-03 15:52:00,
2013-02-03 08:53:00,27.0,19.8,29.87,NW,315,0.0,2.5,74,0.00,,,0.00,WUHU216HW,2013-02-03 15:53:00,
2013-02-03 08:54:00,27.0,19.8,29.87,NW,315,0.0,2.2,74,0.00,,,0.00,WUHU216HW,2013-02-03 15:54:00,
2013-02-03 08:55:00,27.0,19.8,29.87,NW,315,0.4,1.8,74,0.00,,,0.00,WUHU216HW,2013-02-03 15:55:00,
2013-02-03 08:57:00,27.0,19.8,29.87,South,180,0.2,1.3,74,0.00,,,0.00,WUHU216HW,2013-02-03 15:57:00,
2013-02-03 08:59:00,27.0,19.8,29.87,NE,45,1.1,1.3,74,0.00,,,0.00,WUHU216HW,2013-02-03 15:59:00,
2013-02-03 09:00:00,27.0,20.1,29.87,NE,45,2.0,2.0,75,0.00,,,0.00,WUHU216HW,2013-02-03 16:00:00,
2013-02-03 09:02:00,27.0,20.1,29.87,ENE,68,0.0,2.0,75,0.00,,,0.00,WUHU216HW,2013-02-03 16:02:00,
2013-02-03 09:04:00,27.2,20.3,29.88,NW,315,0.9,2.0,75,0.00,,,0.00,WUHU216HW,2013-02-03 16:04:00,
2013-02-03 09:05:00,27.2,20.3,29.88,WSW,248,1.6,2.0,75,0.00,,,0.00,WUHU216HW,2013-02-03 16:05:00,
2013-02-03 09:07:00,27.2,20.3,29.88,WSW,248,3.4,3.4,75,0.00,,,0.00,WUHU216HW,2013-02-03 16:07:00,
2013-02-03 09:09:00,27.2,20.3,29.88,WSW,248,4.5,4.5,75,0.00,,,0.00,WUHU216HW,2013-02-03 16:09:00,
2013-02-03 09:10:00,27.4,20.4,29.88,SW,225,5.4,5.6,75,0.00,,,0.00,WUHU216HW,2013-02-03 16:10:00,
2013-02-03 09:12:00,27.4,20.4,29.88,SW,225,4.0,5.6,75,0.00,,,0.00,WUHU216HW,2013-02-03 16:12:00,
2013-02-03 09:14:00,27.4,20.4,29.88,SW,225,4.7,5.6,75,0.00,,,0.00,WUHU216HW,2013-02-03 16:14:00,
2013-02-03 09:15:00,27.5,20.9,29.88,SW,225,4.7,5.6,76,0.00,,,0.00,WUHU216HW,2013-02-03 16:15:00,
2013-02-03 09:17:00,27.7,21.1,29.88,SW,225,3.8,5.6,76,0.00,,,0.00,WUHU216HW,2013-02-03 16:17:00,
2013-02-03 09:19:00,27.7,21.1,29.88,SW,225,3.8,5.6,76,0.00,,,0.00,WUHU216HW,2013-02-03 16:19:00,
2013-02-03 09:20:00,27.7,21.1,29.88,WSW,248,3.6,5.4,76,0.00,,,0.00,WUHU216HW,2013-02-03 16:20:00,
2013-02-03 09:23:00,27.7,21.1,29.88,SW,225,3.8,4.9,76,0.00,,,0.00,WUHU216HW,2013-02-03 16:23:00,
2013-02-03 09:24:00,27.7,20.8,29.88,SW,225,4.0,4.9,75,0.00,,,0.00,WUHU216HW,2013-02-03 16:24:00,
2013-02-03 09:25:00,27.7,20.8,29.88,SW,225,2.5,4.9,75,0.00,,,0.00,WUHU216HW,2013-02-03 16:25:00,
2013-02-03 09:28:00,27.9,21.0,29.88,South,180,3.4,4.7,75,0.00,,,0.00,WUHU216HW,2013-02-03 16:28:00,
2013-02-03 09:29:00,27.9,21.0,29.88,SSW,203,3.4,4.7,75,0.00,,,0.00,WUHU216HW,2013-02-03 16:29:00,
2013-02-03 09:30:00,27.9,21.0,29.88,SSW,203,3.4,4.7,75,0.00,,,0.00,WUHU216HW,2013-02-03 16:30:00,
2013-02-03 09:31:00,27.9,21.0,29.88,WSW,248,2.9,4.7,75,0.00,,,0.00,WUHU216HW,2013-02-03 16:31:00,
2013-02-03 09:33:00,28.1,21.2,29.88,WSW,248,3.6,4.0,75,0.00,,,0.00,WUHU216HW,2013-02-03 16:33:00,
2013-02-03 09:35:00,28.3,21.1,29.87,WSW,248,2.9,3.8,74,0.00,,,0.00,WUHU216HW,2013-02-03 16:35:00,
2013-02-03 09:36:00,28.3,21.1,29.87,WSW,248,2.9,3.8,74,0.00,,,0.00,WUHU216HW,2013-02-03 16:36:00,
2013-02-03 09:38:00,28.3,20.7,29.87,WSW,248,8.3,8.5,73,0.00,,,0.00,WUHU216HW,2013-02-03 16:38:00,
2013-02-03 09:40:00,28.3,20.7,29.87,West,270,6.0,8.5,73,0.00,,,0.00,WUHU216HW,2013-02-03 16:40:00,
2013-02-03 09:41:00,28.3,20.7,29.87,West,270,8.5,8.5,73,0.00,,,0.00,WUHU216HW,2013-02-03 16:41:00,
2013-02-03 09:44:00,28.3,20.7,29.87,WSW,248,5.1,8.5,73,0.00,,,0.00,WUHU216HW,2013-02-03 16:44:00,
2013-02-03 09:45:00,28.4,20.9,29.87,SW,225,5.6,8.5,73,0.00,,,0.00,WUHU216HW,2013-02-03 16:45:00,
2013-02-03 09:46:00,28.4,20.9,29.87,WSW,248,4.0,8.5,73,0.00,,,0.00,WUHU216HW,2013-02-03 16:46:00,
2013-02-03 09:49:00,28.6,21.1,29.87,WSW,248,1.8,8.5,73,0.00,,,0.00,WUHU216HW,2013-02-03 16:49:00,
2013-02-03 09:50:00,28.6,21.1,29.87,West,270,1.1,8.5,73,0.00,,,0.00,WUHU216HW,2013-02-03 16:50:00,
2013-02-03 09:52:00,28.8,21.3,29.87,West,270,0.4,7.2,73,0.00,,,0.00,WUHU216HW,2013-02-03 16:52:00,
2013-02-03 09:54:00,29.2,21.2,29.87,West,270,2.2,6.0,72,0.00,,,0.00,WUHU216HW,2013-02-03 16:54:00,
2013-02-03 09:55:00,29.2,21.2,29.87,West,270,3.4,5.6,72,0.00,,,0.00,WUHU216HW,2013-02-03 16:55:00,
2013-02-03 09:57:00,29.2,21.2,29.87,West,270,4.3,4.3,72,0.00,,,0.00,WUHU216HW,2013-02-03 16:57:00,
2013-02-03 09:59:00,29.3,21.4,29.87,West,270,4.0,4.7,72,0.00,,,0.00,WUHU216HW,2013-02-03 16:59:00,
2013-02-03 10:00:00,29.5,21.6,29.87,West,270,4.5,4.7,72,0.00,,,0.00,WUHU216HW,2013-02-03 17:00:00,
2013-02-03 10:02:00,29.7,21.4,29.87,WSW,248,3.4,4.7,71,0.00,,,0.00,WUHU216HW,2013-02-03 17:02:00,
2013-02-03 10:04:00,29.9,21.6,29.87,WSW,248,1.6,4.7,71,0.00,,,0.00,WUHU216HW,2013-02-03 17:04:00,
2013-02-03 10:05:00,30.1,21.8,29.87,WSW,248,2.2,4.7,71,0.00,,,0.00,WUHU216HW,2013-02-03 17:05:00,
2013-02-03 10:07:00,30.2,22.0,29.87,West,270,1.1,4.7,71,0.00,,,0.00,WUHU216HW,2013-02-03 17:07:00,
2013-02-03 10:09:00,30.4,21.8,29.87,West,270,0.2,4.5,70,0.00,,,0.00,WUHU216HW,2013-02-03 17:09:00,
2013-02-03 10:10:00,30.6,22.0,29.87,West,270,0.0,4.3,70,0.00,,,0.00,WUHU216HW,2013-02-03 17:10:00,
2013-02-03 10:13:00,30.8,22.1,29.87,West,270,0.0,2.5,70,0.00,,,0.00,WUHU216HW,2013-02-03 17:13:00,
2013-02-03 10:14:00,31.0,22.3,29.87,West,270,0.2,2.5,70,0.00,,,0.00,WUHU216HW,2013-02-03 17:14:00,
2013-02-03 10:15:00,31.1,22.1,29.87,NNW,338,0.4,2.2,69,0.00,,,0.00,WUHU216HW,2013-02-03 17:15:00,
2013-02-03 10:16:00,31.1,22.1,29.87,NNW,338,0.4,2.2,69,0.00,,,0.00,WUHU216HW,2013-02-03 17:16:00,
2013-02-03 10:18:00,31.3,22.7,29.87,NE,45,2.0,2.5,70,0.00,,,0.00,WUHU216HW,2013-02-03 17:18:00,
2013-02-03 10:19:00,31.3,22.7,29.87,North,0,4.0,4.0,70,0.00,,,0.00,WUHU216HW,2013-02-03 17:19:00,
2013-02-03 10:20:00,31.1,22.9,29.88,North,0,4.0,4.7,71,0.00,,,0.00,WUHU216HW,2013-02-03 17:20:00,
2013-02-03 10:21:00,31.1,22.9,29.88,North,0,4.0,4.7,71,0.00,,,0.00,WUHU216HW,2013-02-03 17:21:00,
2013-02-03 10:23:00,30.6,21.6,29.88,NNE,23,4.7,4.7,69,0.00,,,0.00,WUHU216HW,2013-02-03 17:23:00,
2013-02-03 10:24:00,30.6,22.0,29.88,NNE,23,2.2,4.7,70,0.00,,,0.00,WUHU216HW,2013-02-03 17:24:00,
2013-02-03 10:25:00,30.6,22.0,29.88,NE,45,3.4,4.7,70,0.00,,,0.00,WUHU216HW,2013-02-03 17:25:00,
2013-02-03 10:26:00,30.6,22.0,29.88,NNE,23,3.1,4.7,70,0.00,,,0.00,WUHU216HW,2013-02-03 17:26:00,
2013-02-03 10:28:00,30.4,22.2,29.88,NNE,23,2.0,4.7,71,0.00,,,0.00,WUHU216HW,2013-02-03 17:28:00,
2013-02-03 10:29:00,30.6,22.3,29.87,NNE,23,1.3,4.7,71,0.00,,,0.00,WUHU216HW,2013-02-03 17:29:00,
2013-02-03 10:30:00,30.6,22.6,29.87,North,0,0.7,4.7,72,0.00,,,0.00,WUHU216HW,2013-02-03 17:30:00,
2013-02-03 10:31:00,30.6,22.6,29.87,North,0,0.4,4.7,72,0.00,,,0.00,WUHU216HW,2013-02-03 17:31:00,
2013-02-03 10:34:00,30.6,22.6,29.87,NW,315,0.4,3.4,72,0.00,,,0.00,WUHU216HW,2013-02-03 17:34:00,
2013-02-03 10:36:00,30.8,22.8,29.87,WSW,248,1.1,3.1,72,0.00,,,0.00,WUHU216HW,2013-02-03 17:36:00,
2013-02-03 10:39:00,31.1,23.1,29.87,WSW,248,0.4,1.3,72,0.00,,,0.00,WUHU216HW,2013-02-03 17:39:00,
2013-02-03 10:41:00,31.3,23.1,29.88,WNW,293,1.6,1.6,71,0.00,,,0.00,WUHU216HW,2013-02-03 17:41:00,
2013-02-03 10:44:00,31.5,22.9,29.88,NNW,338,1.1,1.8,70,0.00,,,0.00,WUHU216HW,2013-02-03 17:44:00,
2013-02-03 10:46:00,31.3,22.7,29.88,North,0,1.8,2.5,70,0.00,,,0.00,WUHU216HW,2013-02-03 17:46:00,
2013-02-03 10:47:00,31.3,22.7,29.88,North,0,1.8,2.5,70,0.00,,,0.00,WUHU216HW,2013-02-03 17:47:00,
2013-02-03 10:49:00,31.3,22.7,29.88,North,0,1.3,2.5,70,0.00,,,0.00,WUHU216HW,2013-02-03 17:49:00,
2013-02-03 10:50:00,31.1,22.5,29.88,North,0,1.6,2.5,70,0.00,,,0.00,WUHU216HW,2013-02-03 17:50:00,
2013-02-03 10:51:00,31.0,22.0,29.88,North,0,1.8,2.5,69,0.00,,,0.00,WUHU216HW,2013-02-03 17:51:00,
2013-02-03 10:52:00,31.0,22.0,29.88,North,0,1.1,2.5,69,0.00,,,0.00,WUHU216HW,2013-02-03 17:52:00,
2013-02-03 10:54:00,30.8,21.8,29.88,North,0,1.1,2.5,69,0.00,,,0.00,WUHU216HW,2013-02-03 17:54:00,
2013-02-03 10:55:00,30.8,21.8,29.88,North,0,0.7,2.5,69,0.00,,,0.00,WUHU216HW,2013-02-03 17:55:00,
2013-02-03 10:56:00,30.8,21.8,29.88,North,0,0.7,1.8,69,0.00,,,0.00,WUHU216HW,2013-02-03 17:56:00,
2013-02-03 10:57:00,30.8,21.8,29.88,North,0,0.4,1.8,69,0.00,,,0.00,WUHU216HW,2013-02-03 17:57:00,
2013-02-03 10:59:00,31.0,22.0,29.88,North,0,0.2,1.8,69,0.00,,,0.00,WUHU216HW,2013-02-03 17:59:00,
2013-02-03 11:00:00,31.0,22.3,29.88,North,0,0.2,1.8,70,0.00,,,0.00,WUHU216HW,2013-02-03 18:00:00,
2013-02-03 11:01:00,31.1,22.5,29.88,North,0,0.4,1.6,70,0.00,,,0.00,WUHU216HW,2013-02-03 18:01:00,
2013-02-03 11:03:00,31.3,22.7,29.88,WSW,248,1.6,1.8,70,0.00,,,0.00,WUHU216HW,2013-02-03 18:03:00,
2013-02-03 11:04:00,31.3,22.7,29.88,WSW,248,1.8,2.0,70,0.00,,,0.00,WUHU216HW,2013-02-03 18:04:00,
2013-02-03 11:05:00,31.3,22.3,29.89,West,270,2.0,2.2,69,0.00,,,0.00,WUHU216HW,2013-02-03 18:05:00,
2013-02-03 11:06:00,31.3,22.3,29.89,West,270,2.7,2.7,69,0.00,,,0.00,WUHU216HW,2013-02-03 18:06:00,
2013-02-03 11:08:00,31.5,22.5,29.89,West,270,3.1,3.8,69,0.00,,,0.00,WUHU216HW,2013-02-03 18:08:00,
2013-02-03 11:10:00,31.5,22.1,29.89,West,270,2.2,3.8,68,0.00,,,0.00,WUHU216HW,2013-02-03 18:10:00,
2013-02-03 11:11:00,31.3,22.0,29.89,WSW,248,1.8,3.8,68,0.00,,,0.00,WUHU216HW,2013-02-03 18:11:00,
2013-02-03 11:13:00,31.3,22.3,29.89,West,270,1.3,3.8,69,0.00,,,0.00,WUHU216HW,2013-02-03 18:13:00,
2013-02-03 11:15:00,31.5,22.1,29.89,West,270,1.8,3.8,68,0.00,,,0.00,WUHU216HW,2013-02-03 18:15:00,
2013-02-03 11:17:00,31.5,22.1,29.89,WNW,293,2.7,3.8,68,0.00,,,0.00,WUHU216HW,2013-02-03 18:17:00,
2013-02-03 11:18:00,31.3,22.0,29.89,WNW,293,3.8,3.8,68,0.00,,,0.00,WUHU216HW,2013-02-03 18:18:00,
2013-02-03 11:20:00,31.3,22.3,29.89,West,270,2.5,3.8,69,0.00,,,0.00,WUHU216HW,2013-02-03 18:20:00,
2013-02-03 11:22:00,31.5,22.5,29.89,West,270,4.5,4.7,69,0.00,,,0.00,WUHU216HW,2013-02-03 18:22:00,
2013-02-03 11:23:00,31.5,22.5,29.89,West,270,4.0,4.7,69,0.00,,,0.00,WUHU216HW,2013-02-03 18:23:00,
2013-02-03 11:25:00,31.9,23.2,29.89,West,270,3.8,4.7,70,0.00,,,0.00,WUHU216HW,2013-02-03 18:25:00,
2013-02-03 11:26:00,31.9,23.2,29.89,WNW,293,4.9,4.9,70,0.00,,,0.00,WUHU216HW,2013-02-03 18:26:00,
2013-02-03 11:27:00,31.9,22.5,29.89,West,270,4.3,4.9,68,0.00,,,0.00,WUHU216HW,2013-02-03 18:27:00,
2013-02-03 11:28:00,32.0,22.7,29.89,West,270,3.8,4.9,68,0.00,,,0.00,WUHU216HW,2013-02-03 18:28:00,
2013-02-03 11:30:00,32.0,23.0,29.89,WSW,248,5.1,5.4,69,0.00,,,0.00,WUHU216HW,2013-02-03 18:30:00,
2013-02-03 11:31:00,32.0,23.4,29.89,West,270,4.3,5.4,70,0.00,,,0.00,WUHU216HW,2013-02-03 18:31:00,
2013-02-03 11:33:00,32.4,23.8,29.89,West,270,4.3,5.4,70,0.00,,,0.00,WUHU216HW,2013-02-03 18:33:00,
2013-02-03 11:35:00,32.8,23.7,29.89,West,270,3.6,5.4,69,0.00,,,0.00,WUHU216HW,2013-02-03 18:35:00,
2013-02-03 11:36:00,32.9,23.9,29.89,West,270,2.5,5.4,69,0.00,,,0.00,WUHU216HW,2013-02-03 18:36:00,
2013-02-03 11:38:00,33.1,24.0,29.89,WSW,248,2.5,5.4,69,0.00,,,0.00,WUHU216HW,2013-02-03 18:38:00,
2013-02-03 11:40:00,33.5,23.9,29.88,SW,225,1.6,4.7,68,0.00,,,0.00,WUHU216HW,2013-02-03 18:40:00,
2013-02-03 11:41:00,33.5,24.3,29.88,ESE,113,0.2,4.7,69,0.00,,,0.00,WUHU216HW,2013-02-03 18:41:00,
2013-02-03 11:43:00,33.8,24.7,29.88,ESE,113,0.0,4.7,69,0.00,,,0.00,WUHU216HW,2013-02-03 18:43:00,
2013-02-03 11:45:00,34.2,25.0,29.87,SW,225,0.7,3.4,69,0.00,,,0.00,WUHU216HW,2013-02-03 18:45:00,
2013-02-03 11:46:00,34.2,25.0,29.87,WSW,248,3.4,3.4,69,0.00,,,0.00,WUHU216HW,2013-02-03 18:46:00,
2013-02-03 11:48:00,34.6,24.3,29.87,West,270,3.6,5.4,66,0.00,,,0.00,WUHU216HW,2013-02-03 18:48:00,
2013-02-03 11:50:00,34.9,23.9,29.87,NNW,338,3.4,5.4,64,0.00,,,0.00,WUHU216HW,2013-02-03 18:50:00,
2013-02-03 11:51:00,34.9,24.3,29.87,NW,315,2.0,5.4,65,0.00,,,0.00,WUHU216HW,2013-02-03 18:51:00,
2013-02-03 11:53:00,34.9,23.9,29.87,West,270,1.8,5.4,64,0.00,,,0.00,WUHU216HW,2013-02-03 18:53:00,
2013-02-03 11:55:00,35.1,24.1,29.87,West,270,2.0,5.4,64,0.00,,,0.00,WUHU216HW,2013-02-03 18:55:00,
2013-02-03 11:56:00,35.1,24.1,29.87,West,270,2.7,5.4,64,0.00,,,0.00,WUHU216HW,2013-02-03 18:56:00,
2013-02-03 11:58:00,35.3,24.7,29.87,SW,225,1.8,5.4,65,0.00,,,0.00,WUHU216HW,2013-02-03 18:58:00,
2013-02-03 12:01:00,35.6,25.0,29.87,SSW,203,2.0,2.9,65,0.00,,,0.00,WUHU216HW,2013-02-03 19:01:00,
2013-02-03 12:02:00,35.8,25.2,29.87,SE,135,3.6,3.6,65,0.00,,,0.00,WUHU216HW,2013-02-03 19:02:00,
2013-02-03 12:03:00,36.0,25.4,29.87,SSE,158,3.4,3.6,65,0.00,,,0.00,WUHU216HW,2013-02-03 19:03:00,
2013-02-03 12:04:00,36.2,25.6,29.87,SSE,158,2.2,3.6,65,0.00,,,0.00,WUHU216HW,2013-02-03 19:04:00,
2013-02-03 12:06:00,36.5,26.3,29.87,ESE,113,1.8,3.6,66,0.00,,,0.00,WUHU216HW,2013-02-03 19:06:00,
2013-02-03 12:07:00,36.5,26.3,29.87,ENE,68,4.0,4.0,66,0.00,,,0.00,WUHU216HW,2013-02-03 19:07:00,
2013-02-03 12:08:00,36.7,26.5,29.87,East,90,4.5,6.0,66,0.00,,,0.00,WUHU216HW,2013-02-03 19:08:00,
2013-02-03 12:09:00,36.7,26.5,29.87,ESE,113,4.5,6.0,66,0.00,,,0.00,WUHU216HW,2013-02-03 19:09:00,
2013-02-03 12:11:00,36.9,26.2,29.87,East,90,4.0,6.5,65,0.00,,,0.00,WUHU216HW,2013-02-03 19:11:00,
2013-02-03 12:12:00,36.7,26.0,29.87,ESE,113,1.8,6.5,65,0.00,,,0.00,WUHU216HW,2013-02-03 19:12:00,
2013-02-03 12:13:00,36.7,26.0,29.86,SSE,158,1.6,6.5,65,0.00,,,0.00,WUHU216HW,2013-02-03 19:13:00,
2013-02-03 12:14:00,36.7,26.0,29.86,SSE,158,2.5,6.5,65,0.00,,,0.00,WUHU216HW,2013-02-03 19:14:00,
2013-02-03 12:16:00,36.9,26.2,29.86,SSE,158,1.6,6.5,65,0.00,,,0.00,WUHU216HW,2013-02-03 19:16:00,
2013-02-03 12:17:00,37.1,26.4,29.86,SSW,203,1.8,6.5,65,0.00,,,0.00,WUHU216HW,2013-02-03 19:17:00,
2013-02-03 12:18:00,37.1,26.4,29.86,South,180,1.8,6.5,65,0.00,,,0.00,WUHU216HW,2013-02-03 19:18:00,
2013-02-03 12:19:00,37.1,26.4,29.86,SW,225,2.7,6.5,65,0.00,,,0.00,WUHU216HW,2013-02-03 19:19:00,
2013-02-03 12:21:00,37.1,26.4,29.86,SSW,203,1.8,2.9,65,0.00,,,0.00,WUHU216HW,2013-02-03 19:21:00,
2013-02-03 12:22:00,37.1,26.0,29.86,South,180,2.9,2.9,64,0.00,,,0.00,WUHU216HW,2013-02-03 19:22:00,
2013-02-03 12:23:00,37.3,26.2,29.86,South,180,2.9,3.4,64,0.00,,,0.00,WUHU216HW,2013-02-03 19:23:00,
2013-02-03 12:24:00,37.3,26.2,29.86,South,180,2.7,3.4,64,0.00,,,0.00,WUHU216HW,2013-02-03 19:24:00,
2013-02-03 12:26:00,37.3,26.2,29.86,SSE,158,2.5,3.6,64,0.00,,,0.00,WUHU216HW,2013-02-03 19:26:00,
2013-02-03 12:27:00,37.3,26.2,29.86,SE,135,1.1,3.6,64,0.00,,,0.00,WUHU216HW,2013-02-03 19:27:00,
2013-02-03 12:29:00,37.4,26.4,29.86,ESE,113,0.7,3.6,64,0.00,,,0.00,WUHU216HW,2013-02-03 19:29:00,
2013-02-03 12:31:00,37.3,25.5,29.86,East,90,2.7,3.6,62,0.00,,,0.00,WUHU216HW,2013-02-03 19:31:00,
2013-02-03 12:33:00,37.3,25.5,29.86,East,90,4.7,4.7,62,0.00,,,0.00,WUHU216HW,2013-02-03 19:33:00,
2013-02-03 12:34:00,37.1,25.7,29.86,East,90,6.3,6.3,63,0.00,,,0.00,WUHU216HW,2013-02-03 19:34:00,
2013-02-03 12:36:00,37.1,25.7,29.86,ESE,113,6.9,8.1,63,0.00,,,0.00,WUHU216HW,2013-02-03 19:36:00,
2013-02-03 12:38:00,36.9,25.5,29.86,East,90,5.8,8.1,63,0.00,,,0.00,WUHU216HW,2013-02-03 19:38:00,
2013-02-03 12:39:00,36.9,25.5,29.86,ESE,113,4.7,8.1,63,0.00,,,0.00,WUHU216HW,2013-02-03 19:39:00,
2013-02-03 12:41:00,37.1,26.0,29.86,East,90,1.1,8.1,64,0.00,,,0.00,WUHU216HW,2013-02-03 19:41:00,
2013-02-03 12:43:00,37.1,26.0,29.86,ESE,113,1.3,8.1,64,0.00,,,0.00,WUHU216HW,2013-02-03 19:43:00,
2013-02-03 12:44:00,37.1,26.0,29.86,ESE,113,0.7,8.1,64,0.00,,,0.00,WUHU216HW,2013-02-03 19:44:00,
2013-02-03 12:46:00,37.4,26.4,29.86,SSE,158,0.4,5.8,64,0.00,,,0.00,WUHU216HW,2013-02-03 19:46:00,
2013-02-03 12:48:00,37.6,26.6,29.86,SSE,158,1.6,5.8,64,0.00,,,0.00,WUHU216HW,2013-02-03 19:48:00,
2013-02-03 12:49:00,37.8,26.6,29.86,SSE,158,1.8,4.5,64,0.00,,,0.00,WUHU216HW,2013-02-03 19:49:00,
2013-02-03 12:50:00,37.8,26.6,29.86,SSE,158,1.8,3.4,64,0.00,,,0.00,WUHU216HW,2013-02-03 19:50:00,
2013-02-03 12:52:00,38.0,26.8,29.86,ESE,113,3.1,4.0,64,0.00,,,0.00,WUHU216HW,2013-02-03 19:52:00,
2013-02-03 12:53:00,38.2,26.7,29.86,South,180,3.4,4.9,63,0.00,,,0.00,WUHU216HW,2013-02-03 19:53:00,
2013-02-03 12:54:00,38.2,26.7,29.85,SSE,158,2.5,4.9,63,0.00,,,0.00,WUHU216HW,2013-02-03 19:54:00,
2013-02-03 12:55:00,38.2,26.7,29.85,SSE,158,3.4,4.9,63,0.00,,,0.00,WUHU216HW,2013-02-03 19:55:00,
2013-02-03 12:57:00,38.3,26.8,29.85,SSE,158,5.8,5.8,63,0.00,,,0.00,WUHU216HW,2013-02-03 19:57:00,
2013-02-03 12:58:00,38.3,26.4,29.85,SE,135,7.6,7.6,62,0.00,,,0.00,WUHU216HW,2013-02-03 19:58:00,
2013-02-03 12:59:00,38.3,26.4,29.85,SE,135,5.1,7.6,62,0.00,,,0.00,WUHU216HW,2013-02-03 19:59:00,
2013-02-03 13:00:00,38.3,26.4,29.85,SSE,158,5.4,7.6,62,0.00,,,0.00,WUHU216HW,2013-02-03 20:00:00,
2013-02-03 13:02:00,38.5,26.6,29.85,SSE,158,0.9,7.6,62,0.00,,,0.00,WUHU216HW,2013-02-03 20:02:00,
2013-02-03 13:03:00,38.5,26.9,29.85,SE,135,2.2,7.6,63,0.00,,,0.00,WUHU216HW,2013-02-03 20:03:00,
2013-02-03 13:04:00,38.5,26.9,29.85,South,180,3.8,7.6,63,0.00,,,0.00,WUHU216HW,2013-02-03 20:04:00,
2013-02-03 13:05:00,38.7,27.1,29.85,South,180,3.6,7.6,63,0.00,,,0.00,WUHU216HW,2013-02-03 20:05:00,
2013-02-03 13:07:00,38.9,27.3,29.85,SE,135,3.4,7.6,63,0.00,,,0.00,WUHU216HW,2013-02-03 20:07:00,
2013-02-03 13:08:00,39.2,27.6,29.85,South,180,4.3,7.6,63,0.00,,,0.00,WUHU216HW,2013-02-03 20:08:00,
2013-02-03 13:10:00,39.4,27.0,29.84,SSE,158,4.7,5.4,61,0.00,,,0.00,WUHU216HW,2013-02-03 20:10:00,
2013-02-03 13:12:00,39.8,27.4,29.84,South,180,3.4,5.1,61,0.00,,,0.00,WUHU216HW,2013-02-03 20:12:00,
2013-02-03 13:13:00,40.0,27.5,29.84,South,180,2.0,5.1,61,0.00,,,0.00,WUHU216HW,2013-02-03 20:13:00,
2013-02-03 13:15:00,40.0,27.5,29.84,South,180,1.8,5.1,61,0.00,,,0.00,WUHU216HW,2013-02-03 20:15:00,
2013-02-03 13:17:00,40.3,27.5,29.84,SSE,158,2.5,5.1,60,0.00,,,0.00,WUHU216HW,2013-02-03 20:17:00,
2013-02-03 13:18:00,40.5,27.7,29.84,South,180,3.1,5.1,60,0.00,,,0.00,WUHU216HW,2013-02-03 20:18:00,
2013-02-03 13:20:00,40.7,27.9,29.84,SSW,203,1.8,5.1,60,0.00,,,0.00,WUHU216HW,2013-02-03 20:20:00,
2013-02-03 13:22:00,41.0,28.3,29.84,SW,225,2.0,3.4,60,0.00,,,0.00,WUHU216HW,2013-02-03 20:22:00,
2013-02-03 13:23:00,41.4,28.6,29.84,SSW,203,2.5,3.4,60,0.00,,,0.00,WUHU216HW,2013-02-03 20:23:00,
2013-02-03 13:25:00,41.6,28.3,29.84,SSE,158,1.6,3.4,59,0.00,,,0.00,WUHU216HW,2013-02-03 20:25:00,
2013-02-03 13:27:00,41.9,28.6,29.84,SE,135,1.6,3.4,59,0.00,,,0.00,WUHU216HW,2013-02-03 20:27:00,
2013-02-03 13:28:00,42.1,28.8,29.84,ESE,113,0.9,3.4,59,0.00,,,0.00,WUHU216HW,2013-02-03 20:28:00,
2013-02-03 13:30:00,42.5,29.2,29.83,ESE,113,2.7,2.9,59,0.00,,,0.00,WUHU216HW,2013-02-03 20:30:00,
2013-02-03 13:32:00,42.8,28.6,29.83,East,90,3.1,3.4,57,0.00,,,0.00,WUHU216HW,2013-02-03 20:32:00,
2013-02-03 13:33:00,42.8,28.6,29.83,East,90,4.0,4.0,57,0.00,,,0.00,WUHU216HW,2013-02-03 20:33:00,
2013-02-03 13:35:00,42.8,28.6,29.83,ESE,113,6.0,6.0,57,0.00,,,0.00,WUHU216HW,2013-02-03 20:35:00,
2013-02-03 13:36:00,42.8,28.6,29.83,SE,135,5.8,6.0,57,0.00,,,0.00,WUHU216HW,2013-02-03 20:36:00,
2013-02-03 13:37:00,42.8,27.7,29.83,SE,135,2.5,6.0,55,0.00,,,0.00,WUHU216HW,2013-02-03 20:37:00,
2013-02-03 13:38:00,42.8,28.2,29.83,ESE,113,2.7,6.0,56,0.00,,,0.00,WUHU216HW,2013-02-03 20:38:00,
2013-02-03 13:41:00,42.8,27.7,29.83,North,0,0.9,6.0,55,0.00,,,0.00,WUHU216HW,2013-02-03 20:41:00,
2013-02-03 13:43:00,42.5,26.6,29.83,North,0,1.8,6.0,53,0.00,,,0.00,WUHU216HW,2013-02-03 20:43:00,
2013-02-03 13:46:00,41.4,25.9,29.83,SE,135,0.7,6.0,54,0.00,,,0.00,WUHU216HW,2013-02-03 20:46:00,
2013-02-03 13:48:00,41.2,27.1,29.83,SSE,158,4.9,5.8,57,0.00,,,0.00,WUHU216HW,2013-02-03 20:48:00,
2013-02-03 13:51:00,42.1,27.5,29.82,South,180,8.1,8.1,56,0.00,,,0.00,WUHU216HW,2013-02-03 20:51:00,
2013-02-03 13:53:00,42.8,27.3,29.82,South,180,10.3,10.3,54,0.00,,,0.00,WUHU216HW,2013-02-03 20:53:00,
2013-02-03 13:54:00,43.0,27.0,29.82,SE,135,9.8,10.3,53,0.00,,,0.00,WUHU216HW,2013-02-03 20:54:00,
2013-02-03 13:56:00,43.6,27.6,29.82,SE,135,6.7,10.3,53,0.00,,,0.00,WUHU216HW,2013-02-03 20:56:00,
2013-02-03 13:58:00,43.9,27.9,29.82,SSE,158,8.5,10.3,53,0.00,,,0.00,WUHU216HW,2013-02-03 20:58:00,
2013-02-03 13:59:00,44.1,28.0,29.82,South,180,6.9,10.3,53,0.00,,,0.00,WUHU216HW,2013-02-03 20:59:00,
2013-02-03 14:01:00,44.3,28.2,29.82,SSE,158,6.9,10.3,53,0.00,,,0.00,WUHU216HW,2013-02-03 21:01:00,
2013-02-03 14:03:00,44.3,28.2,29.82,SSE,158,6.3,9.8,53,0.00,,,0.00,WUHU216HW,2013-02-03 21:03:00,
2013-02-03 14:04:00,44.3,28.2,29.82,SE,135,6.3,9.6,53,0.00,,,0.00,WUHU216HW,2013-02-03 21:04:00,
2013-02-03 14:06:00,44.3,28.2,29.82,SE,135,8.5,8.9,53,0.00,,,0.00,WUHU216HW,2013-02-03 21:06:00,
2013-02-03 14:08:00,44.1,28.0,29.82,ESE,113,3.4,8.9,53,0.00,,,0.00,WUHU216HW,2013-02-03 21:08:00,
2013-02-03 14:09:00,43.9,27.9,29.82,ESE,113,4.7,8.5,53,0.00,,,0.00,WUHU216HW,2013-02-03 21:09:00,
2013-02-03 14:12:00,43.4,27.4,29.82,SSE,158,6.3,8.5,53,0.00,,,0.00,WUHU216HW,2013-02-03 21:12:00,
2013-02-03 14:13:00,42.8,26.8,29.82,SE,135,8.7,9.8,53,0.00,,,0.00,WUHU216HW,2013-02-03 21:13:00,
2013-02-03 14:14:00,42.8,26.8,29.82,ESE,113,8.9,9.8,53,0.00,,,0.00,WUHU216HW,2013-02-03 21:14:00,
2013-02-03 14:17:00,42.1,26.7,29.82,ESE,113,3.6,9.8,54,0.00,,,0.00,WUHU216HW,2013-02-03 21:17:00,
2013-02-03 14:19:00,41.8,26.7,29.82,ESE,113,6.3,9.8,55,0.00,,,0.00,WUHU216HW,2013-02-03 21:19:00,
2013-02-03 14:22:00,41.4,26.8,29.82,SE,135,8.5,9.8,56,0.00,,,0.00,WUHU216HW,2013-02-03 21:22:00,
2013-02-03 14:24:00,41.4,26.8,29.82,ESE,113,4.7,8.9,56,0.00,,,0.00,WUHU216HW,2013-02-03 21:24:00,
2013-02-03 14:27:00,41.6,27.0,29.82,SE,135,6.9,8.5,56,0.00,,,0.00,WUHU216HW,2013-02-03 21:27:00,
2013-02-03 14:29:00,41.8,27.2,29.82,SE,135,5.8,8.5,56,0.00,,,0.00,WUHU216HW,2013-02-03 21:29:00,
2013-02-03 14:30:00,41.8,27.2,29.82,SSE,158,5.8,8.5,56,0.00,,,0.00,WUHU216HW,2013-02-03 21:30:00,
2013-02-03 14:32:00,41.9,27.7,29.82,SSE,158,4.7,8.5,57,0.00,,,0.00,WUHU216HW,2013-02-03 21:32:00,
2013-02-03 14:34:00,42.1,27.9,29.82,SSE,158,5.8,7.6,57,0.00,,,0.00,WUHU216HW,2013-02-03 21:34:00,
2013-02-03 14:35:00,42.1,27.9,29.82,SSE,158,4.0,7.6,57,0.00,,,0.00,WUHU216HW,2013-02-03 21:35:00,
2013-02-03 14:37:00,42.1,27.9,29.82,SSE,158,2.5,7.6,57,0.00,,,0.00,WUHU216HW,2013-02-03 21:37:00,
2013-02-03 14:38:00,42.1,27.9,29.82,SSE,158,3.6,7.6,57,0.00,,,0.00,WUHU216HW,2013-02-03 21:38:00,
2013-02-03 14:39:00,42.1,27.9,29.82,ESE,113,1.6,6.5,57,0.00,,,0.00,WUHU216HW,2013-02-03 21:39:00,
2013-02-03 14:41:00,41.8,27.2,29.82,ENE,68,0.7,6.3,56,0.00,,,0.00,WUHU216HW,2013-02-03 21:41:00,
2013-02-03 14:42:00,41.6,27.0,29.82,NE,45,1.3,6.3,56,0.00,,,0.00,WUHU216HW,2013-02-03 21:42:00,
2013-02-03 14:43:00,41.4,26.8,29.82,East,90,2.2,6.3,56,0.00,,,0.00,WUHU216HW,2013-02-03 21:43:00,
2013-02-03 14:44:00,41.4,27.3,29.82,SE,135,2.5,6.0,57,0.00,,,0.00,WUHU216HW,2013-02-03 21:44:00,
2013-02-03 14:46:00,41.4,27.7,29.82,East,90,3.4,4.5,58,0.00,,,0.00,WUHU216HW,2013-02-03 21:46:00,
2013-02-03 14:47:00,41.4,27.3,29.82,ESE,113,3.4,4.5,57,0.00,,,0.00,WUHU216HW,2013-02-03 21:47:00,
2013-02-03 14:48:00,41.4,27.3,29.82,ESE,113,4.3,4.5,57,0.00,,,0.00,WUHU216HW,2013-02-03 21:48:00,
2013-02-03 14:49:00,41.4,27.7,29.82,ESE,113,4.7,4.7,58,0.00,,,0.00,WUHU216HW,2013-02-03 21:49:00,
2013-02-03 14:51:00,41.6,27.9,29.82,SE,135,4.5,5.1,58,0.00,,,0.00,WUHU216HW,2013-02-03 21:51:00,
2013-02-03 14:52:00,41.6,27.9,29.82,SE,135,4.7,5.4,58,0.00,,,0.00,WUHU216HW,2013-02-03 21:52:00,
2013-02-03 14:53:00,41.6,27.9,29.82,SE,135,4.7,5.4,58,0.00,,,0.00,WUHU216HW,2013-02-03 21:53:00,
2013-02-03 14:55:00,41.6,27.9,29.82,SE,135,3.4,5.4,58,0.00,,,0.00,WUHU216HW,2013-02-03 21:55:00,
2013-02-03 14:56:00,41.6,27.9,29.82,SSE,158,1.8,5.4,58,0.00,,,0.00,WUHU216HW,2013-02-03 21:56:00,
2013-02-03 14:58:00,41.8,28.0,29.81,South,180,3.4,5.4,58,0.00,,,0.00,WUHU216HW,2013-02-03 21:58:00,
2013-02-03 15:00:00,41.9,26.9,29.82,South,180,4.7,8.5,55,0.00,,,0.00,WUHU216HW,2013-02-03 22:00:00,
2013-02-03 15:01:00,42.1,27.5,29.82,SSE,158,4.3,8.5,56,0.00,,,0.00,WUHU216HW,2013-02-03 22:01:00,
2013-02-03 15:03:00,42.3,27.6,29.82,SSE,158,6.0,8.5,56,0.00,,,0.00,WUHU216HW,2013-02-03 22:03:00,
2013-02-03 15:04:00,42.5,27.8,29.82,SSE,158,5.4,8.5,56,0.00,,,0.00,WUHU216HW,2013-02-03 22:04:00,
2013-02-03 15:05:00,42.5,27.8,29.82,SSE,158,3.4,8.5,56,0.00,,,0.00,WUHU216HW,2013-02-03 22:05:00,
2013-02-03 15:06:00,42.7,28.0,29.82,SSE,158,4.9,8.5,56,0.00,,,0.00,WUHU216HW,2013-02-03 22:06:00,
2013-02-03 15:08:00,42.8,27.7,29.82,South,180,4.5,8.5,55,0.00,,,0.00,WUHU216HW,2013-02-03 22:08:00,
2013-02-03 15:09:00,42.8,27.3,29.82,SSE,158,5.4,8.5,54,0.00,,,0.00,WUHU216HW,2013-02-03 22:09:00,
2013-02-03 15:10:00,43.0,27.5,29.82,SE,135,6.9,6.9,54,0.00,,,0.00,WUHU216HW,2013-02-03 22:10:00,
2013-02-03 15:11:00,43.0,27.0,29.82,SSE,158,6.9,8.1,53,0.00,,,0.00,WUHU216HW,2013-02-03 22:11:00,
2013-02-03 15:13:00,43.2,27.2,29.82,SSE,158,7.2,8.1,53,0.00,,,0.00,WUHU216HW,2013-02-03 22:13:00,
2013-02-03 15:14:00,43.2,27.2,29.82,SSE,158,5.4,8.1,53,0.00,,,0.00,WUHU216HW,2013-02-03 22:14:00,
2013-02-03 15:15:00,43.2,27.2,29.82,SSE,158,6.9,8.1,53,0.00,,,0.00,WUHU216HW,2013-02-03 22:15:00,
2013-02-03 15:16:00,43.2,27.2,29.82,SSE,158,5.4,8.1,53,0.00,,,0.00,WUHU216HW,2013-02-03 22:16:00,
2013-02-03 15:18:00,43.2,26.7,29.82,SSE,158,6.5,8.1,52,0.00,,,0.00,WUHU216HW,2013-02-03 22:18:00,
2013-02-03 15:19:00,43.2,26.3,29.82,SE,135,6.5,8.1,51,0.00,,,0.00,WUHU216HW,2013-02-03 22:19:00,
2013-02-03 15:20:00,43.0,26.6,29.82,ESE,113,4.0,8.1,52,0.00,,,0.00,WUHU216HW,2013-02-03 22:20:00,
2013-02-03 15:21:00,43.2,27.2,29.82,SE,135,3.6,7.2,53,0.00,,,0.00,WUHU216HW,2013-02-03 22:21:00,
2013-02-03 15:23:00,43.0,27.0,29.82,SE,135,6.3,6.9,53,0.00,,,0.00,WUHU216HW,2013-02-03 22:23:00,
2013-02-03 15:24:00,43.0,27.0,29.82,SE,135,6.0,6.9,53,0.00,,,0.00,WUHU216HW,2013-02-03 22:24:00,
2013-02-03 15:25:00,42.8,26.5,29.82,SE,135,6.7,7.6,52,0.00,,,0.00,WUHU216HW,2013-02-03 22:25:00,
2013-02-03 15:26:00,42.8,26.8,29.82,SE,135,7.2,7.6,53,0.00,,,0.00,WUHU216HW,2013-02-03 22:26:00,
2013-02-03 15:28:00,42.8,26.0,29.82,SSE,158,6.9,7.6,51,0.00,,,0.00,WUHU216HW,2013-02-03 22:28:00,
2013-02-03 15:29:00,42.8,26.0,29.82,SE,135,7.4,8.1,51,0.00,,,0.00,WUHU216HW,2013-02-03 22:29:00,
2013-02-03 15:30:00,42.8,26.0,29.82,SE,135,5.6,8.1,51,0.00,,,0.00,WUHU216HW,2013-02-03 22:30:00,
2013-02-03 15:32:00,42.7,25.8,29.82,SE,135,4.0,8.1,51,0.00,,,0.00,WUHU216HW,2013-02-03 22:32:00,
2013-02-03 15:33:00,42.7,26.3,29.82,SE,135,5.4,8.1,52,0.00,,,0.00,WUHU216HW,2013-02-03 22:33:00,
2013-02-03 15:34:00,42.7,26.3,29.83,SSE,158,5.6,8.1,52,0.00,,,0.00,WUHU216HW,2013-02-03 22:34:00,
2013-02-03 15:35:00,42.5,25.7,29.83,South,180,5.4,8.1,51,0.00,,,0.00,WUHU216HW,2013-02-03 22:35:00,
2013-02-03 15:37:00,42.5,25.7,29.83,South,180,5.4,8.1,51,0.00,,,0.00,WUHU216HW,2013-02-03 22:37:00,
2013-02-03 15:39:00,42.3,25.0,29.82,SSE,158,7.4,8.1,50,0.00,,,0.00,WUHU216HW,2013-02-03 22:39:00,
2013-02-03 15:40:00,42.3,24.5,29.82,SSE,158,5.6,7.8,49,0.00,,,0.00,WUHU216HW,2013-02-03 22:40:00,
2013-02-03 15:42:00,41.9,24.7,29.82,South,180,5.6,7.4,50,0.00,,,0.00,WUHU216HW,2013-02-03 22:42:00,
2013-02-03 15:44:00,41.8,24.5,29.82,South,180,6.3,7.4,50,0.00,,,0.00,WUHU216HW,2013-02-03 22:44:00,
2013-02-03 15:45:00,41.8,24.5,29.82,SSE,158,5.6,7.4,50,0.00,,,0.00,WUHU216HW,2013-02-03 22:45:00,
2013-02-03 15:47:00,41.4,24.1,29.82,South,180,6.0,7.4,50,0.00,,,0.00,WUHU216HW,2013-02-03 22:47:00,
2013-02-03 15:49:00,41.2,24.4,29.82,South,180,6.5,6.5,51,0.00,,,0.00,WUHU216HW,2013-02-03 22:49:00,
2013-02-03 15:50:00,41.2,24.4,29.82,SSE,158,5.4,6.5,51,0.00,,,0.00,WUHU216HW,2013-02-03 22:50:00,
2013-02-03 15:53:00,40.9,24.0,29.82,South,180,6.0,6.5,51,0.00,,,0.00,WUHU216HW,2013-02-03 22:53:00,
2013-02-03 15:54:00,40.9,23.6,29.82,South,180,4.9,6.5,50,0.00,,,0.00,WUHU216HW,2013-02-03 22:54:00,
2013-02-03 15:55:00,40.9,24.0,29.82,SSE,158,6.9,7.4,51,0.00,,,0.00,WUHU216HW,2013-02-03 22:55:00,
2013-02-03 15:58:00,40.7,23.4,29.81,SSE,158,5.4,7.4,50,0.00,,,0.00,WUHU216HW,2013-02-03 22:58:00,
2013-02-03 15:59:00,40.7,23.4,29.82,SSE,158,4.7,7.4,50,0.00,,,0.00,WUHU216HW,2013-02-03 22:59:00,
2013-02-03 16:00:00,40.7,23.9,29.82,South,180,4.5,7.4,51,0.00,,,0.00,WUHU216HW,2013-02-03 23:00:00,
2013-02-03 16:01:00,40.7,23.9,29.82,South,180,6.0,7.4,51,0.00,,,0.00,WUHU216HW,2013-02-03 23:01:00,
2013-02-03 16:03:00,40.5,23.3,29.82,SSE,158,6.5,7.4,50,0.00,,,0.00,WUHU216HW,2013-02-03 23:03:00,
2013-02-03 16:04:00,40.3,23.1,29.82,SSE,158,5.8,7.4,50,0.00,,,0.00,WUHU216HW,2013-02-03 23:04:00,
2013-02-03 16:05:00,40.5,23.3,29.81,South,180,5.4,7.4,50,0.00,,,0.00,WUHU216HW,2013-02-03 23:05:00,
2013-02-03 16:06:00,40.3,23.1,29.81,SSE,158,5.1,7.4,50,0.00,,,0.00,WUHU216HW,2013-02-03 23:06:00,
2013-02-03 16:08:00,40.3,23.6,29.81,SSE,158,4.5,7.2,51,0.00,,,0.00,WUHU216HW,2013-02-03 23:08:00,
2013-02-03 16:09:00,40.1,23.4,29.81,SSE,158,3.6,7.2,51,0.00,,,0.00,WUHU216HW,2013-02-03 23:09:00,
2013-02-03 16:10:00,40.1,23.4,29.80,SSE,158,3.8,7.2,51,0.00,,,0.00,WUHU216HW,2013-02-03 23:10:00,
2013-02-03 16:11:00,40.1,23.4,29.81,SSE,158,4.0,7.2,51,0.00,,,0.00,WUHU216HW,2013-02-03 23:11:00,
2013-02-03 16:13:00,40.1,23.4,29.81,SE,135,5.4,6.7,51,0.00,,,0.00,WUHU216HW,2013-02-03 23:13:00,
2013-02-03 16:14:00,40.1,23.4,29.81,SSE,158,4.0,6.0,51,0.00,,,0.00,WUHU216HW,2013-02-03 23:14:00,
2013-02-03 16:15:00,40.0,23.2,29.81,SSE,158,4.7,6.0,51,0.00,,,0.00,WUHU216HW,2013-02-03 23:15:00,
2013-02-03 16:16:00,40.0,23.2,29.81,SSE,158,4.9,6.0,51,0.00,,,0.00,WUHU216HW,2013-02-03 23:16:00,
2013-02-03 16:18:00,40.0,23.2,29.81,SSE,158,4.7,6.3,51,0.00,,,0.00,WUHU216HW,2013-02-03 23:18:00,
2013-02-03 16:20:00,40.0,23.2,29.81,South,180,4.0,6.3,51,0.00,,,0.00,WUHU216HW,2013-02-03 23:20:00,
2013-02-03 16:21:00,39.8,23.0,29.81,SSE,158,3.4,6.3,51,0.00,,,0.00,WUHU216HW,2013-02-03 23:21:00,
2013-02-03 16:23:00,39.6,23.3,29.81,SSE,158,3.6,6.3,52,0.00,,,0.00,WUHU216HW,2013-02-03 23:23:00,
2013-02-03 16:25:00,39.6,23.3,29.80,SSE,158,4.7,6.3,52,0.00,,,0.00,WUHU216HW,2013-02-03 23:25:00,
2013-02-03 16:26:00,39.6,23.3,29.80,South,180,3.8,6.3,52,0.00,,,0.00,WUHU216HW,2013-02-03 23:26:00,
2013-02-03 16:29:00,39.4,23.1,29.80,South,180,5.1,5.6,52,0.00,,,0.00,WUHU216HW,2013-02-03 23:29:00,
2013-02-03 16:30:00,39.2,23.4,29.80,SSW,203,4.7,5.6,53,0.00,,,0.00,WUHU216HW,2013-02-03 23:30:00,
2013-02-03 16:31:00,39.2,23.4,29.80,South,180,5.4,5.6,53,0.00,,,0.00,WUHU216HW,2013-02-03 23:31:00,
2013-02-03 16:34:00,39.1,23.3,29.80,SSE,158,5.4,5.8,53,0.00,,,0.00,WUHU216HW,2013-02-03 23:34:00,
2013-02-03 16:35:00,38.9,23.1,29.80,SSE,158,6.0,6.0,53,0.00,,,0.00,WUHU216HW,2013-02-03 23:35:00,
2013-02-03 16:36:00,38.9,23.1,29.80,SSE,158,6.3,6.3,53,0.00,,,0.00,WUHU216HW,2013-02-03 23:36:00,
2013-02-03 16:39:00,38.7,23.0,29.80,South,180,7.6,7.6,53,0.00,,,0.00,WUHU216HW,2013-02-03 23:39:00,
2013-02-03 16:40:00,38.7,22.5,29.80,SSE,158,5.4,8.9,52,0.00,,,0.00,WUHU216HW,2013-02-03 23:40:00,
2013-02-03 16:41:00,38.9,23.1,29.80,ESE,113,4.7,8.9,53,0.00,,,0.00,WUHU216HW,2013-02-03 23:41:00,
2013-02-03 16:44:00,38.7,23.0,29.80,SSW,203,4.0,8.9,53,0.00,,,0.00,WUHU216HW,2013-02-03 23:44:00,
2013-02-03 16:45:00,38.7,23.0,29.80,SW,225,4.5,8.9,53,0.00,,,0.00,WUHU216HW,2013-02-03 23:45:00,
2013-02-03 16:46:00,38.5,22.8,29.80,SW,225,3.8,8.9,53,0.00,,,0.00,WUHU216HW,2013-02-03 23:46:00,
2013-02-03 16:49:00,38.9,23.6,29.80,SSW,203,4.5,8.9,54,0.00,,,0.00,WUHU216HW,2013-02-03 23:49:00,
2013-02-03 16:51:00,39.2,23.9,29.79,South,180,4.5,6.3,54,0.00,,,0.00,WUHU216HW,2013-02-03 23:51:00,
2013-02-03 16:54:00,40.7,24.8,29.79,South,180,4.0,6.0,53,0.00,,,0.00,WUHU216HW,2013-02-03 23:54:00,
2013-02-03 16:56:00,41.2,25.3,29.80,SSE,158,4.3,6.0,53,0.00,,,0.00,WUHU216HW,2013-02-03 23:56:00,
2013-02-03 16:59:00,41.9,24.7,29.80,SSE,158,5.4,5.4,50,0.00,,,0.00,WUHU216HW,2013-02-03 23:59:00,
2013-02-03 17:01:00,41.9,24.7,29.80,SSE,158,3.8,5.4,50,0.00,,,0.00,WUHU216HW,2013-02-04 00:01:00,
2013-02-03 17:02:00,41.9,24.7,29.80,South,180,4.5,5.4,50,0.00,,,0.00,WUHU216HW,2013-02-04 00:02:00,
2013-02-03 17:04:00,41.4,23.6,29.79,SSW,203,5.4,6.5,49,0.00,,,0.00,WUHU216HW,2013-02-04 00:04:00,
2013-02-03 17:06:00,41.0,23.2,29.80,South,180,3.4,6.7,49,0.00,,,0.00,WUHU216HW,2013-02-04 00:06:00,
2013-02-03 17:07:00,40.9,23.0,29.80,SSE,158,4.7,6.7,49,0.00,,,0.00,WUHU216HW,2013-02-04 00:07:00,
2013-02-03 17:09:00,40.3,23.1,29.79,SSE,158,4.0,6.7,50,0.00,,,0.00,WUHU216HW,2013-02-04 00:09:00,
2013-02-03 17:11:00,40.0,22.8,29.79,SE,135,4.7,6.7,50,0.00,,,0.00,WUHU216HW,2013-02-04 00:11:00,
2013-02-03 17:12:00,39.8,22.6,29.79,ESE,113,4.0,6.7,50,0.00,,,0.00,WUHU216HW,2013-02-04 00:12:00,
2013-02-03 17:14:00,39.2,22.6,29.79,ESE,113,2.9,6.7,51,0.00,,,0.00,WUHU216HW,2013-02-04 00:14:00,
2013-02-03 17:16:00,39.2,23.1,29.79,SE,135,1.8,4.7,52,0.00,,,0.00,WUHU216HW,2013-02-04 00:16:00,
2013-02-03 17:17:00,39.1,22.9,29.79,ESE,113,1.6,4.7,52,0.00,,,0.00,WUHU216HW,2013-02-04 00:17:00,
2013-02-03 17:19:00,38.5,22.8,29.79,ESE,113,0.4,4.7,53,0.00,,,0.00,WUHU216HW,2013-02-04 00:19:00,
2013-02-03 17:21:00,38.3,23.0,29.79,East,90,0.0,4.7,54,0.00,,,0.00,WUHU216HW,2013-02-04 00:21:00,
2013-02-03 17:22:00,38.2,22.9,29.79,South,180,0.0,4.0,54,0.00,,,0.00,WUHU216HW,2013-02-04 00:22:00,
2013-02-03 17:24:00,37.3,23.9,29.80,North,0,1.8,2.9,58,0.00,,,0.00,WUHU216HW,2013-02-04 00:24:00,
2013-02-03 17:26:00,36.5,24.0,29.80,NNW,338,2.0,2.5,60,0.00,,,0.00,WUHU216HW,2013-02-04 00:26:00,
2013-02-03 17:27:00,36.4,23.9,29.80,North,0,2.9,2.9,60,0.00,,,0.00,WUHU216HW,2013-02-04 00:27:00,
2013-02-03 17:30:00,35.8,23.4,29.80,North,0,1.8,3.4,60,0.00,,,0.00,WUHU216HW,2013-02-04 00:30:00,
2013-02-03 17:31:00,35.6,23.2,29.80,North,0,2.5,3.4,60,0.00,,,0.00,WUHU216HW,2013-02-04 00:31:00,
2013-02-03 17:32:00,35.6,23.2,29.80,NNW,338,3.4,3.4,60,0.00,,,0.00,WUHU216HW,2013-02-04 00:32:00,
2013-02-03 17:35:00,35.5,23.0,29.80,West,270,2.5,3.6,60,0.00,,,0.00,WUHU216HW,2013-02-04 00:35:00,
2013-02-03 17:36:00,35.5,23.0,29.81,WSW,248,1.1,3.6,60,0.00,,,0.00,WUHU216HW,2013-02-04 00:36:00,
2013-02-03 17:37:00,35.5,23.0,29.81,WSW,248,2.0,3.6,60,0.00,,,0.00,WUHU216HW,2013-02-04 00:37:00,
2013-02-03 17:38:00,35.5,23.0,29.81,WSW,248,2.2,3.6,60,0.00,,,0.00,WUHU216HW,2013-02-04 00:38:00,
2013-02-03 17:40:00,35.5,23.0,29.81,WSW,248,2.9,3.6,60,0.00,,,0.00,WUHU216HW,2013-02-04 00:40:00,
2013-02-03 17:41:00,35.5,23.0,29.81,SW,225,2.7,3.6,60,0.00,,,0.00,WUHU216HW,2013-02-04 00:41:00,
2013-02-03 17:42:00,35.5,23.0,29.81,SW,225,3.1,3.6,60,0.00,,,0.00,WUHU216HW,2013-02-04 00:42:00,
2013-02-03 17:43:00,35.5,23.0,29.81,WSW,248,3.4,3.6,60,0.00,,,0.00,WUHU216HW,2013-02-04 00:43:00,
2013-02-03 17:45:00,35.5,23.4,29.81,West,270,4.7,4.7,61,0.00,,,0.00,WUHU216HW,2013-02-04 00:45:00,
2013-02-03 17:46:00,35.1,23.0,29.81,West,270,4.0,5.8,61,0.00,,,0.00,WUHU216HW,2013-02-04 00:46:00,
2013-02-03 17:47:00,34.9,22.9,29.81,West,270,3.1,5.8,61,0.00,,,0.00,WUHU216HW,2013-02-04 00:47:00,
2013-02-03 17:48:00,34.9,22.9,29.81,West,270,4.0,5.8,61,0.00,,,0.00,WUHU216HW,2013-02-04 00:48:00,
2013-02-03 17:50:00,34.7,22.7,29.81,WSW,248,3.8,5.8,61,0.00,,,0.00,WUHU216HW,2013-02-04 00:50:00,
2013-02-03 17:51:00,34.6,22.5,29.81,WSW,248,4.7,5.8,61,0.00,,,0.00,WUHU216HW,2013-02-04 00:51:00,
2013-02-03 17:52:00,34.6,22.5,29.81,WSW,248,4.7,5.8,61,0.00,,,0.00,WUHU216HW,2013-02-04 00:52:00,
2013-02-03 17:53:00,34.4,22.3,29.81,WSW,248,4.3,5.8,61,0.00,,,0.00,WUHU216HW,2013-02-04 00:53:00,
2013-02-03 17:55:00,34.6,22.9,29.81,WSW,248,3.1,5.8,62,0.00,,,0.00,WUHU216HW,2013-02-04 00:55:00,
2013-02-03 17:56:00,34.4,22.7,29.81,WSW,248,1.8,5.1,62,0.00,,,0.00,WUHU216HW,2013-02-04 00:56:00,
2013-02-03 17:57:00,34.4,22.7,29.81,WSW,248,3.6,5.1,62,0.00,,,0.00,WUHU216HW,2013-02-04 00:57:00,
2013-02-03 17:59:00,34.4,22.7,29.81,WSW,248,3.4,5.1,62,0.00,,,0.00,WUHU216HW,2013-02-04 00:59:00,
2013-02-03 18:00:00,34.4,22.7,29.81,WSW,248,3.6,5.1,62,0.00,,,0.00,WUHU216HW,2013-02-04 01:00:00,
2013-02-03 18:02:00,34.4,22.7,29.81,WSW,248,4.0,5.1,62,0.00,,,0.00,WUHU216HW,2013-02-04 01:02:00,
2013-02-03 18:04:00,34.4,22.7,29.81,SW,225,4.5,4.5,62,0.00,,,0.00,WUHU216HW,2013-02-04 01:04:00,
2013-02-03 18:05:00,34.4,22.7,29.80,WSW,248,4.0,4.7,62,0.00,,,0.00,WUHU216HW,2013-02-04 01:05:00,
2013-02-03 18:07:00,34.4,22.7,29.80,WSW,248,4.3,4.7,62,0.00,,,0.00,WUHU216HW,2013-02-04 01:07:00,
2013-02-03 18:09:00,34.6,22.9,29.80,WSW,248,3.8,4.7,62,0.00,,,0.00,WUHU216HW,2013-02-04 01:09:00,
2013-02-03 18:10:00,34.6,22.9,29.80,SW,225,4.0,4.7,62,0.00,,,0.00,WUHU216HW,2013-02-04 01:10:00,
2013-02-03 18:12:00,34.6,22.9,29.80,SW,225,3.6,4.7,62,0.00,,,0.00,WUHU216HW,2013-02-04 01:12:00,
2013-02-03 18:13:00,34.6,22.9,29.80,SW,225,4.5,4.7,62,0.00,,,0.00,WUHU216HW,2013-02-04 01:13:00,
2013-02-03 18:14:00,34.6,22.9,29.80,SW,225,3.8,4.7,62,0.00,,,0.00,WUHU216HW,2013-02-04 01:14:00,
2013-02-03 18:15:00,34.6,23.2,29.80,SW,225,5.6,5.6,63,0.00,,,0.00,WUHU216HW,2013-02-04 01:15:00,
2013-02-03 18:17:00,34.6,23.2,29.80,SW,225,4.7,5.8,63,0.00,,,0.00,WUHU216HW,2013-02-04 01:17:00,
2013-02-03 18:18:00,34.6,23.2,29.80,WSW,248,4.0,5.8,63,0.00,,,0.00,WUHU216HW,2013-02-04 01:18:00,
2013-02-03 18:19:00,34.6,23.2,29.80,WSW,248,5.4,6.0,63,0.00,,,0.00,WUHU216HW,2013-02-04 01:19:00,
2013-02-03 18:20:00,34.6,23.2,29.80,WSW,248,3.6,6.0,63,0.00,,,0.00,WUHU216HW,2013-02-04 01:20:00,
2013-02-03 18:22:00,34.4,23.0,29.80,WSW,248,2.9,6.0,63,0.00,,,0.00,WUHU216HW,2013-02-04 01:22:00,
2013-02-03 18:23:00,34.6,23.2,29.80,SW,225,2.5,6.0,63,0.00,,,0.00,WUHU216HW,2013-02-04 01:23:00,
2013-02-03 18:24:00,34.4,23.0,29.80,WSW,248,2.9,6.0,63,0.00,,,0.00,WUHU216HW,2013-02-04 01:24:00,
2013-02-03 18:26:00,34.4,23.0,29.80,WSW,248,2.5,6.0,63,0.00,,,0.00,WUHU216HW,2013-02-04 01:26:00,
2013-02-03 18:28:00,34.4,23.0,29.80,SW,225,2.9,6.0,63,0.00,,,0.00,WUHU216HW,2013-02-04 01:28:00,
2013-02-03 18:29:00,34.6,22.9,29.80,SW,225,2.9,5.4,62,0.00,,,0.00,WUHU216HW,2013-02-04 01:29:00,
2013-02-03 18:31:00,34.6,22.9,29.80,SW,225,2.5,4.0,62,0.00,,,0.00,WUHU216HW,2013-02-04 01:31:00,
2013-02-03 18:33:00,34.6,22.9,29.80,WSW,248,3.1,3.4,62,0.00,,,0.00,WUHU216HW,2013-02-04 01:33:00,
2013-02-03 18:34:00,34.6,22.9,29.80,WSW,248,2.2,3.4,62,0.00,,,0.00,WUHU216HW,2013-02-04 01:34:00,
2013-02-03 18:36:00,34.4,22.7,29.80,WSW,248,1.6,3.4,62,0.00,,,0.00,WUHU216HW,2013-02-04 01:36:00,
2013-02-03 18:38:00,34.4,22.7,29.80,WSW,248,1.8,3.4,62,0.00,,,0.00,WUHU216HW,2013-02-04 01:38:00,
2013-02-03 18:39:00,34.4,22.7,29.80,WSW,248,1.6,3.1,62,0.00,,,0.00,WUHU216HW,2013-02-04 01:39:00,
2013-02-03 18:41:00,34.6,22.9,29.80,WSW,248,1.6,3.1,62,0.00,,,0.00,WUHU216HW,2013-02-04 01:41:00,
2013-02-03 18:43:00,34.6,22.9,29.80,SW,225,2.5,3.1,62,0.00,,,0.00,WUHU216HW,2013-02-04 01:43:00,
2013-02-03 18:44:00,34.6,22.5,29.80,SW,225,3.4,3.4,61,0.00,,,0.00,WUHU216HW,2013-02-04 01:44:00,
2013-02-03 18:46:00,34.6,22.5,29.80,SSW,203,4.0,4.0,61,0.00,,,0.00,WUHU216HW,2013-02-04 01:46:00,
2013-02-03 18:48:00,34.6,22.5,29.80,South,180,4.0,5.1,61,0.00,,,0.00,WUHU216HW,2013-02-04 01:48:00,
2013-02-03 18:49:00,34.6,22.1,29.80,SSW,203,2.5,5.1,60,0.00,,,0.00,WUHU216HW,2013-02-04 01:49:00,
2013-02-03 18:51:00,34.6,22.1,29.80,SSW,203,3.1,5.1,60,0.00,,,0.00,WUHU216HW,2013-02-04 01:51:00,
2013-02-03 18:53:00,34.7,22.3,29.80,WSW,248,3.4,5.1,60,0.00,,,0.00,WUHU216HW,2013-02-04 01:53:00,
2013-02-03 18:54:00,34.6,22.1,29.80,WSW,248,3.4,5.1,60,0.00,,,0.00,WUHU216HW,2013-02-04 01:54:00,
2013-02-03 18:56:00,34.6,22.1,29.80,SW,225,2.5,5.1,60,0.00,,,0.00,WUHU216HW,2013-02-04 01:56:00,
2013-02-03 18:58:00,34.6,22.1,29.80,SW,225,2.5,4.0,60,0.00,,,0.00,WUHU216HW,2013-02-04 01:58:00,
2013-02-03 18:59:00,34.6,22.1,29.80,SSE,158,2.5,4.0,60,0.00,,,0.00,WUHU216HW,2013-02-04 01:59:00,
2013-02-03 19:01:00,34.6,22.1,29.80,WSW,248,2.2,3.4,60,0.00,,,0.00,WUHU216HW,2013-02-04 02:01:00,
2013-02-03 19:03:00,34.7,21.9,29.80,WSW,248,3.4,3.6,59,0.00,,,0.00,WUHU216HW,2013-02-04 02:03:00,
2013-02-03 19:04:00,34.7,21.9,29.80,WSW,248,4.3,4.3,59,0.00,,,0.00,WUHU216HW,2013-02-04 02:04:00,
2013-02-03 19:06:00,34.7,21.9,29.80,WSW,248,4.7,4.7,59,0.00,,,0.00,WUHU216HW,2013-02-04 02:06:00,
2013-02-03 19:08:00,34.7,22.3,29.80,NE,45,2.7,4.7,60,0.00,,,0.00,WUHU216HW,2013-02-04 02:08:00,
2013-02-03 19:09:00,34.6,22.9,29.80,NNE,23,4.7,6.3,62,0.00,,,0.00,WUHU216HW,2013-02-04 02:09:00,
2013-02-03 19:10:00,34.6,22.9,29.80,NE,45,4.0,6.3,62,0.00,,,0.00,WUHU216HW,2013-02-04 02:10:00,
2013-02-03 19:11:00,34.2,22.5,29.80,NNW,338,2.7,6.3,62,0.00,,,0.00,WUHU216HW,2013-02-04 02:11:00,
2013-02-03 19:13:00,33.8,22.1,29.80,WSW,248,2.0,6.3,62,0.00,,,0.00,WUHU216HW,2013-02-04 02:13:00,
2013-02-03 19:14:00,33.8,22.1,29.80,NNW,338,2.9,6.3,62,0.00,,,0.00,WUHU216HW,2013-02-04 02:14:00,
2013-02-03 19:15:00,33.8,22.1,29.80,NNW,338,2.9,6.3,62,0.00,,,0.00,WUHU216HW,2013-02-04 02:15:00,
2013-02-03 19:16:00,33.8,22.9,29.80,North,0,2.9,6.3,64,0.00,,,0.00,WUHU216HW,2013-02-04 02:16:00,
2013-02-03 19:18:00,33.5,22.1,29.80,North,0,0.9,6.3,63,0.00,,,0.00,WUHU216HW,2013-02-04 02:18:00,
2013-02-03 19:20:00,33.5,22.1,29.80,North,0,3.1,5.1,63,0.00,,,0.00,WUHU216HW,2013-02-04 02:20:00,
2013-02-03 19:22:00,33.1,21.9,29.80,North,0,1.8,5.1,63,0.00,,,0.00,WUHU216HW,2013-02-04 02:22:00,
2013-02-03 19:23:00,33.1,22.2,29.80,North,0,1.8,5.1,64,0.00,,,0.00,WUHU216HW,2013-02-04 02:23:00,
2013-02-03 19:25:00,33.1,22.2,29.80,WNW,293,3.8,5.1,64,0.00,,,0.00,WUHU216HW,2013-02-04 02:25:00,
2013-02-03 19:27:00,32.8,22.2,29.80,NNW,338,3.4,4.0,65,0.00,,,0.00,WUHU216HW,2013-02-04 02:27:00,
2013-02-03 19:28:00,32.8,21.9,29.80,NNE,23,3.8,4.0,64,0.00,,,0.00,WUHU216HW,2013-02-04 02:28:00,
2013-02-03 19:30:00,32.9,22.4,29.80,NNE,23,4.0,4.0,65,0.00,,,0.00,WUHU216HW,2013-02-04 02:30:00,
2013-02-03 19:32:00,33.1,22.2,29.80,NNW,338,3.4,4.3,64,0.00,,,0.00,WUHU216HW,2013-02-04 02:32:00,
2013-02-03 19:33:00,33.1,22.2,29.80,North,0,1.1,4.3,64,0.00,,,0.00,WUHU216HW,2013-02-04 02:33:00,
2013-02-03 19:35:00,33.1,22.2,29.80,West,270,3.1,4.3,64,0.00,,,0.00,WUHU216HW,2013-02-04 02:35:00,
2013-02-03 19:37:00,33.1,22.2,29.80,North,0,1.8,4.3,64,0.00,,,0.00,WUHU216HW,2013-02-04 02:37:00,
2013-02-03 19:39:00,32.9,22.1,29.80,North,0,2.0,4.3,64,0.00,,,0.00,WUHU216HW,2013-02-04 02:39:00,
2013-02-03 19:40:00,32.9,22.1,29.80,North,0,0.4,4.3,64,0.00,,,0.00,WUHU216HW,2013-02-04 02:40:00,
2013-02-03 19:42:00,32.9,22.1,29.80,West,270,2.7,3.1,64,0.00,,,0.00,WUHU216HW,2013-02-04 02:42:00,
2013-02-03 19:44:00,32.8,21.9,29.80,West,270,1.6,3.1,64,0.00,,,0.00,WUHU216HW,2013-02-04 02:44:00,
2013-02-03 19:45:00,32.8,21.9,29.80,West,270,0.4,3.1,64,0.00,,,0.00,WUHU216HW,2013-02-04 02:45:00,
2013-02-03 19:47:00,32.6,21.7,29.80,West,270,4.3,4.3,64,0.00,,,0.00,WUHU216HW,2013-02-04 02:47:00,
2013-02-03 19:49:00,32.0,21.6,29.80,WSW,248,3.1,4.3,65,0.00,,,0.00,WUHU216HW,2013-02-04 02:49:00,
2013-02-03 19:50:00,32.0,21.6,29.80,SW,225,1.8,4.3,65,0.00,,,0.00,WUHU216HW,2013-02-04 02:50:00,
2013-02-03 19:52:00,32.0,21.6,29.80,SW,225,3.4,4.3,65,0.00,,,0.00,WUHU216HW,2013-02-04 02:52:00,
2013-02-03 19:54:00,32.0,22.0,29.80,NNW,338,2.2,4.7,66,0.00,,,0.00,WUHU216HW,2013-02-04 02:54:00,
2013-02-03 19:55:00,32.0,22.0,29.80,NNW,338,5.4,7.2,66,0.00,,,0.00,WUHU216HW,2013-02-04 02:55:00,
2013-02-03 19:57:00,32.0,22.0,29.80,West,270,1.8,7.2,66,0.00,,,0.00,WUHU216HW,2013-02-04 02:57:00,
2013-02-03 19:59:00,32.2,21.8,29.80,ENE,68,1.1,7.2,65,0.00,,,0.00,WUHU216HW,2013-02-04 02:59:00,
2013-02-03 20:00:00,32.4,22.0,29.80,ENE,68,0.0,7.2,65,0.00,,,0.00,WUHU216HW,2013-02-04 03:00:00,
2013-02-03 20:01:00,32.4,22.0,29.80,ENE,68,0.0,7.2,65,0.00,,,0.00,WUHU216HW,2013-02-04 03:01:00,
2013-02-03 20:02:00,32.6,22.1,29.79,WSW,248,1.6,7.2,65,0.00,,,0.00,WUHU216HW,2013-02-04 03:02:00,
2013-02-03 20:05:00,32.8,22.2,29.80,WSW,248,1.1,7.2,65,0.00,,,0.00,WUHU216HW,2013-02-04 03:05:00,
2013-02-03 20:06:00,32.8,21.9,29.80,WSW,248,1.1,4.9,64,0.00,,,0.00,WUHU216HW,2013-02-04 03:06:00,
2013-02-03 20:07:00,32.6,21.7,29.80,WSW,248,0.4,2.5,64,0.00,,,0.00,WUHU216HW,2013-02-04 03:07:00,
2013-02-03 20:10:00,32.6,21.7,29.80,West,270,1.8,2.5,64,0.00,,,0.00,WUHU216HW,2013-02-04 03:10:00,
2013-02-03 20:11:00,32.8,21.9,29.80,West,270,0.4,2.5,64,0.00,,,0.00,WUHU216HW,2013-02-04 03:11:00,
2013-02-03 20:12:00,32.8,21.9,29.79,SE,135,0.4,2.5,64,0.00,,,0.00,WUHU216HW,2013-02-04 03:12:00,
2013-02-03 20:15:00,32.8,21.9,29.79,SW,225,2.7,3.8,64,0.00,,,0.00,WUHU216HW,2013-02-04 03:15:00,
2013-02-03 20:16:00,32.9,22.1,29.79,SW,225,3.6,3.8,64,0.00,,,0.00,WUHU216HW,2013-02-04 03:16:00,
2013-02-03 20:17:00,32.9,22.1,29.79,SSE,158,3.6,4.7,64,0.00,,,0.00,WUHU216HW,2013-02-04 03:17:00,
2013-02-03 20:20:00,32.8,21.9,29.79,South,180,2.5,4.7,64,0.00,,,0.00,WUHU216HW,2013-02-04 03:20:00,
2013-02-03 20:21:00,32.8,21.9,29.79,SW,225,0.7,4.7,64,0.00,,,0.00,WUHU216HW,2013-02-04 03:21:00,
2013-02-03 20:22:00,32.8,21.9,29.79,SE,135,1.3,4.7,64,0.00,,,0.00,WUHU216HW,2013-02-04 03:22:00,
2013-02-03 20:25:00,32.8,21.9,29.79,SSE,158,4.3,4.7,64,0.00,,,0.00,WUHU216HW,2013-02-04 03:25:00,
2013-02-03 20:26:00,32.8,21.9,29.79,SSE,158,3.8,4.7,64,0.00,,,0.00,WUHU216HW,2013-02-04 03:26:00,
2013-02-03 20:27:00,32.8,22.2,29.79,SSE,158,4.0,4.7,65,0.00,,,0.00,WUHU216HW,2013-02-04 03:27:00,
2013-02-03 20:30:00,32.8,22.2,29.79,ESE,113,1.6,4.7,65,0.00,,,0.00,WUHU216HW,2013-02-04 03:30:00,
2013-02-03 20:31:00,32.8,22.2,29.79,SE,135,2.0,4.7,65,0.00,,,0.00,WUHU216HW,2013-02-04 03:31:00,
2013-02-03 20:32:00,32.8,22.2,29.79,SE,135,2.5,4.7,65,0.00,,,0.00,WUHU216HW,2013-02-04 03:32:00,
2013-02-03 20:33:00,32.8,22.2,29.79,South,180,2.9,4.7,65,0.00,,,0.00,WUHU216HW,2013-02-04 03:33:00,
2013-02-03 20:35:00,32.6,22.1,29.79,SSW,203,4.5,5.4,65,0.00,,,0.00,WUHU216HW,2013-02-04 03:35:00,
2013-02-03 20:36:00,32.8,22.2,29.79,WSW,248,3.4,5.4,65,0.00,,,0.00,WUHU216HW,2013-02-04 03:36:00,
2013-02-03 20:37:00,32.6,22.1,29.79,SW,225,3.1,5.4,65,0.00,,,0.00,WUHU216HW,2013-02-04 03:37:00,
2013-02-03 20:38:00,32.6,22.1,29.79,SW,225,3.1,5.4,65,0.00,,,0.00,WUHU216HW,2013-02-04 03:38:00,
2013-02-03 20:41:00,32.6,22.4,29.79,South,180,4.9,5.4,66,0.00,,,0.00,WUHU216HW,2013-02-04 03:41:00,
2013-02-03 20:42:00,32.6,22.4,29.79,SSW,203,4.0,5.4,66,0.00,,,0.00,WUHU216HW,2013-02-04 03:42:00,
2013-02-03 20:43:00,32.4,22.3,29.79,South,180,3.6,5.4,66,0.00,,,0.00,WUHU216HW,2013-02-04 03:43:00,
2013-02-03 20:46:00,32.4,22.3,29.79,SSE,158,2.2,5.1,66,0.00,,,0.00,WUHU216HW,2013-02-04 03:46:00,
2013-02-03 20:47:00,32.4,22.3,29.79,SSE,158,1.8,5.1,66,0.00,,,0.00,WUHU216HW,2013-02-04 03:47:00,
2013-02-03 20:48:00,32.4,22.3,29.79,SE,135,2.9,5.1,66,0.00,,,0.00,WUHU216HW,2013-02-04 03:48:00,
2013-02-03 20:51:00,32.4,22.3,29.79,SSE,158,2.0,5.1,66,0.00,,,0.00,WUHU216HW,2013-02-04 03:51:00,
2013-02-03 20:52:00,32.6,22.4,29.79,South,180,2.5,4.0,66,0.00,,,0.00,WUHU216HW,2013-02-04 03:52:00,
2013-02-03 20:53:00,32.6,22.4,29.79,SSW,203,4.0,4.0,66,0.00,,,0.00,WUHU216HW,2013-02-04 03:53:00,
2013-02-03 20:56:00,32.6,22.4,29.79,SSE,158,4.0,4.0,66,0.00,,,0.00,WUHU216HW,2013-02-04 03:56:00,
2013-02-03 20:57:00,32.6,22.4,29.79,South,180,2.2,4.0,66,0.00,,,0.00,WUHU216HW,2013-02-04 03:57:00,
2013-02-03 20:58:00,32.6,22.4,29.79,SSW,203,1.1,4.0,66,0.00,,,0.00,WUHU216HW,2013-02-04 03:58:00,
2013-02-03 21:01:00,32.8,22.6,29.79,SW,225,3.6,4.0,66,0.00,,,0.00,WUHU216HW,2013-02-04 04:01:00,
2013-02-03 21:02:00,32.6,22.4,29.79,SW,225,3.6,4.0,66,0.00,,,0.00,WUHU216HW,2013-02-04 04:02:00,
2013-02-03 21:03:00,32.8,22.6,29.79,SW,225,2.7,4.0,66,0.00,,,0.00,WUHU216HW,2013-02-04 04:03:00,
2013-02-03 21:06:00,32.6,22.4,29.79,SW,225,3.6,4.0,66,0.00,,,0.00,WUHU216HW,2013-02-04 04:06:00,
2013-02-03 21:07:00,32.6,22.4,29.79,SW,225,3.4,4.0,66,0.00,,,0.00,WUHU216HW,2013-02-04 04:07:00,
2013-02-03 21:08:00,32.6,22.4,29.79,WSW,248,3.1,4.0,66,0.00,,,0.00,WUHU216HW,2013-02-04 04:08:00,
2013-02-03 21:11:00,32.8,23.0,29.79,WSW,248,6.3,7.2,67,0.00,,,0.00,WUHU216HW,2013-02-04 04:11:00,
2013-02-03 21:12:00,32.8,23.0,29.79,West,270,6.5,7.2,67,0.00,,,0.00,WUHU216HW,2013-02-04 04:12:00,
2013-02-03 21:13:00,32.6,22.8,29.79,West,270,6.5,7.2,67,0.00,,,0.00,WUHU216HW,2013-02-04 04:13:00,
2013-02-03 21:17:00,32.6,22.8,29.79,WSW,248,2.5,7.2,67,0.00,,,0.00,WUHU216HW,2013-02-04 04:17:00,
2013-02-03 21:18:00,32.6,22.8,29.79,WSW,248,3.4,7.2,67,0.00,,,0.00,WUHU216HW,2013-02-04 04:18:00,
2013-02-03 21:22:00,32.6,22.8,29.79,WSW,248,2.9,6.9,67,0.00,,,0.00,WUHU216HW,2013-02-04 04:22:00,
2013-02-03 21:23:00,32.6,22.8,29.78,SW,225,3.4,5.1,67,0.00,,,0.00,WUHU216HW,2013-02-04 04:23:00,
2013-02-03 21:24:00,32.6,22.8,29.78,WSW,248,3.4,5.1,67,0.00,,,0.00,WUHU216HW,2013-02-04 04:24:00,
2013-02-03 21:27:00,32.6,22.8,29.79,WSW,248,3.6,4.9,67,0.00,,,0.00,WUHU216HW,2013-02-04 04:27:00,
2013-02-03 21:28:00,32.4,22.7,29.79,WSW,248,2.7,4.9,67,0.00,,,0.00,WUHU216HW,2013-02-04 04:28:00,
2013-02-03 21:29:00,32.4,23.1,29.79,WSW,248,2.7,4.9,68,0.00,,,0.00,WUHU216HW,2013-02-04 04:29:00,
2013-02-03 21:32:00,32.4,23.1,29.79,SW,225,3.4,5.6,68,0.00,,,0.00,WUHU216HW,2013-02-04 04:32:00,
2013-02-03 21:33:00,32.4,22.7,29.79,WSW,248,3.4,5.6,67,0.00,,,0.00,WUHU216HW,2013-02-04 04:33:00,
2013-02-03 21:34:00,32.6,22.8,29.79,WSW,248,4.3,5.6,67,0.00,,,0.00,WUHU216HW,2013-02-04 04:34:00,
2013-02-03 21:37:00,32.8,23.0,29.79,SW,225,2.7,5.6,67,0.00,,,0.00,WUHU216HW,2013-02-04 04:37:00,
2013-02-03 21:38:00,32.8,23.0,29.79,SW,225,1.8,5.6,67,0.00,,,0.00,WUHU216HW,2013-02-04 04:38:00,
2013-02-03 21:39:00,32.8,23.0,29.79,SW,225,2.0,5.6,67,0.00,,,0.00,WUHU216HW,2013-02-04 04:39:00,
2013-02-03 21:42:00,32.8,23.0,29.79,WSW,248,3.6,4.9,67,0.00,,,0.00,WUHU216HW,2013-02-04 04:42:00,
2013-02-03 21:43:00,32.8,23.0,29.79,WSW,248,3.6,4.9,67,0.00,,,0.00,WUHU216HW,2013-02-04 04:43:00,
2013-02-03 21:44:00,32.8,23.0,29.79,SSW,203,2.5,4.9,67,0.00,,,0.00,WUHU216HW,2013-02-04 04:44:00,
2013-02-03 21:47:00,32.8,23.0,29.79,SSW,203,0.9,4.7,67,0.00,,,0.00,WUHU216HW,2013-02-04 04:47:00,
2013-02-03 21:48:00,32.8,23.0,29.79,SSW,203,0.9,4.7,67,0.00,,,0.00,WUHU216HW,2013-02-04 04:48:00,
2013-02-03 21:49:00,32.8,23.0,29.79,SSW,203,1.6,4.7,67,0.00,,,0.00,WUHU216HW,2013-02-04 04:49:00,
2013-02-03 21:52:00,32.8,23.0,29.79,SW,225,2.5,3.6,67,0.00,,,0.00,WUHU216HW,2013-02-04 04:52:00,
2013-02-03 21:53:00,32.8,23.0,29.79,SSW,203,2.5,3.4,67,0.00,,,0.00,WUHU216HW,2013-02-04 04:53:00,
2013-02-03 21:54:00,32.8,23.0,29.79,SSW,203,2.0,3.4,67,0.00,,,0.00,WUHU216HW,2013-02-04 04:54:00,
2013-02-03 21:57:00,32.8,23.0,29.79,South,180,3.1,3.1,67,0.00,,,0.00,WUHU216HW,2013-02-04 04:57:00,
2013-02-03 21:58:00,32.8,23.0,29.79,SSW,203,3.8,3.8,67,0.00,,,0.00,WUHU216HW,2013-02-04 04:58:00,
2013-02-03 21:59:00,32.8,23.0,29.79,SSW,203,2.9,3.8,67,0.00,,,0.00,WUHU216HW,2013-02-04 04:59:00,
2013-02-03 22:00:00,32.8,23.0,29.79,SW,225,3.8,3.8,67,0.00,,,0.00,WUHU216HW,2013-02-04 05:00:00,
2013-02-03 22:01:00,32.8,23.0,29.79,SW,225,3.4,3.8,67,0.00,,,0.00,WUHU216HW,2013-02-04 05:01:00,
2013-02-03 22:03:00,32.6,22.8,29.79,SW,225,2.9,3.8,67,0.00,,,0.00,WUHU216HW,2013-02-04 05:03:00,
2013-02-03 22:06:00,32.6,22.8,29.79,WSW,248,2.9,4.7,67,0.00,,,0.00,WUHU216HW,2013-02-04 05:06:00,
2013-02-03 22:08:00,32.4,22.7,29.79,WSW,248,1.8,4.7,67,0.00,,,0.00,WUHU216HW,2013-02-04 05:08:00,
2013-02-03 22:11:00,32.2,22.5,29.79,SE,135,2.0,4.7,67,0.00,,,0.00,WUHU216HW,2013-02-04 05:11:00,
2013-02-03 22:13:00,32.2,22.5,29.79,SE,135,1.8,4.7,67,0.00,,,0.00,WUHU216HW,2013-02-04 05:13:00,
2013-02-03 22:16:00,32.2,22.5,29.79,SW,225,1.8,3.4,67,0.00,,,0.00,WUHU216HW,2013-02-04 05:16:00,
2013-02-03 22:18:00,32.2,22.5,29.79,SSW,203,2.5,2.5,67,0.00,,,0.00,WUHU216HW,2013-02-04 05:18:00,
2013-02-03 22:21:00,32.2,22.5,29.79,South,180,4.5,4.5,67,0.00,,,0.00,WUHU216HW,2013-02-04 05:21:00,
2013-02-03 22:23:00,32.0,22.3,29.79,SE,135,4.7,5.1,67,0.00,,,0.00,WUHU216HW,2013-02-04 05:23:00,
2013-02-03 22:26:00,32.0,22.3,29.79,SE,135,1.1,5.1,67,0.00,,,0.00,WUHU216HW,2013-02-04 05:26:00,
2013-02-03 22:28:00,32.0,22.3,29.79,West,270,1.6,5.1,67,0.00,,,0.00,WUHU216HW,2013-02-04 05:28:00,
2013-02-03 22:31:00,32.0,22.3,29.79,SSE,158,1.3,5.1,67,0.00,,,0.00,WUHU216HW,2013-02-04 05:31:00,
2013-02-03 22:32:00,32.0,22.3,29.79,SSE,158,1.3,5.1,67,0.00,,,0.00,WUHU216HW,2013-02-04 05:32:00,
2013-02-03 22:33:00,32.0,22.3,29.79,SSE,158,2.2,4.3,67,0.00,,,0.00,WUHU216HW,2013-02-04 05:33:00,
2013-02-03 22:34:00,32.0,22.3,29.79,SSE,158,2.2,4.3,67,0.00,,,0.00,WUHU216HW,2013-02-04 05:34:00,
2013-02-03 22:36:00,32.0,22.0,29.79,SE,135,3.4,3.4,66,0.00,,,0.00,WUHU216HW,2013-02-04 05:36:00,
2013-02-03 22:37:00,32.0,22.0,29.79,SSE,158,4.0,4.0,66,0.00,,,0.00,WUHU216HW,2013-02-04 05:37:00,
2013-02-03 22:39:00,32.0,22.3,29.79,SE,135,4.3,5.4,67,0.00,,,0.00,WUHU216HW,2013-02-04 05:39:00,
2013-02-03 22:40:00,32.0,22.3,29.79,SE,135,4.0,5.4,67,0.00,,,0.00,WUHU216HW,2013-02-04 05:40:00,
2013-02-03 22:42:00,32.0,22.3,29.79,SSE,158,1.1,5.4,67,0.00,,,0.00,WUHU216HW,2013-02-04 05:42:00,
2013-02-03 22:44:00,32.0,22.0,29.79,SSW,203,2.0,5.4,66,0.00,,,0.00,WUHU216HW,2013-02-04 05:44:00,
2013-02-03 22:45:00,31.9,21.8,29.79,SSE,158,4.0,5.4,66,0.00,,,0.00,WUHU216HW,2013-02-04 05:45:00,
2013-02-03 22:47:00,31.9,22.1,29.79,SE,135,5.4,5.6,67,0.00,,,0.00,WUHU216HW,2013-02-04 05:47:00,
2013-02-03 22:49:00,31.9,22.1,29.79,WSW,248,1.1,5.6,67,0.00,,,0.00,WUHU216HW,2013-02-04 05:49:00,
2013-02-03 22:50:00,31.7,22.0,29.79,WSW,248,5.1,5.6,67,0.00,,,0.00,WUHU216HW,2013-02-04 05:50:00,
2013-02-03 22:52:00,31.7,22.3,29.79,WSW,248,3.4,6.0,68,0.00,,,0.00,WUHU216HW,2013-02-04 05:52:00,
2013-02-03 22:54:00,31.5,22.1,29.79,SSW,203,1.8,6.0,68,0.00,,,0.00,WUHU216HW,2013-02-04 05:54:00,
2013-02-03 22:55:00,31.3,22.0,29.79,South,180,2.0,6.0,68,0.00,,,0.00,WUHU216HW,2013-02-04 05:55:00,
2013-02-03 22:57:00,31.3,22.0,29.79,SSW,203,1.8,6.0,68,0.00,,,0.00,WUHU216HW,2013-02-04 05:57:00,
2013-02-03 22:58:00,31.3,22.0,29.79,SSW,203,1.3,6.0,68,0.00,,,0.00,WUHU216HW,2013-02-04 05:58:00,
2013-02-03 22:59:00,31.3,22.0,29.79,SSW,203,1.8,6.0,68,0.00,,,0.00,WUHU216HW,2013-02-04 05:59:00,
2013-02-03 23:00:00,31.3,22.0,29.79,South,180,1.8,6.0,68,0.00,,,0.00,WUHU216HW,2013-02-04 06:00:00,
2013-02-03 23:02:00,31.3,22.0,29.79,SW,225,1.8,3.4,68,0.00,,,0.00,WUHU216HW,2013-02-04 06:02:00,
2013-02-03 23:03:00,31.3,22.0,29.79,WSW,248,2.0,2.5,68,0.00,,,0.00,WUHU216HW,2013-02-04 06:03:00,
2013-02-03 23:04:00,31.3,22.0,29.79,WSW,248,2.5,2.5,68,0.00,,,0.00,WUHU216HW,2013-02-04 06:04:00,
2013-02-03 23:05:00,31.1,21.8,29.79,WSW,248,2.9,2.9,68,0.00,,,0.00,WUHU216HW,2013-02-04 06:05:00,
2013-02-03 23:07:00,31.1,21.8,29.79,WSW,248,3.1,3.4,68,0.00,,,0.00,WUHU216HW,2013-02-04 06:07:00,
2013-02-03 23:08:00,31.0,21.6,29.79,WSW,248,3.6,3.6,68,0.00,,,0.00,WUHU216HW,2013-02-04 06:08:00,
2013-02-03 23:10:00,31.0,21.6,29.79,WSW,248,4.0,4.0,68,0.00,,,0.00,WUHU216HW,2013-02-04 06:10:00,
2013-02-03 23:11:00,30.8,21.4,29.79,SW,225,2.5,4.0,68,0.00,,,0.00,WUHU216HW,2013-02-04 06:11:00,
2013-02-03 23:12:00,30.8,21.4,29.79,SSW,203,2.5,4.0,68,0.00,,,0.00,WUHU216HW,2013-02-04 06:12:00,
2013-02-03 23:13:00,30.6,21.6,29.79,SSW,203,2.5,4.0,69,0.00,,,0.00,WUHU216HW,2013-02-04 06:13:00,
2013-02-03 23:15:00,30.6,21.6,29.79,SSW,203,2.5,4.0,69,0.00,,,0.00,WUHU216HW,2013-02-04 06:15:00,
2013-02-03 23:16:00,30.6,21.6,29.79,SSW,203,3.4,4.0,69,0.00,,,0.00,WUHU216HW,2013-02-04 06:16:00,
2013-02-03 23:17:00,30.6,21.6,29.79,SW,225,2.9,4.0,69,0.00,,,0.00,WUHU216HW,2013-02-04 06:17:00,
2013-02-03 23:18:00,30.6,21.6,29.79,SW,225,4.0,4.0,69,0.00,,,0.00,WUHU216HW,2013-02-04 06:18:00,
2013-02-03 23:20:00,30.6,21.6,29.79,WSW,248,3.6,4.7,69,0.00,,,0.00,WUHU216HW,2013-02-04 06:20:00,
2013-02-03 23:21:00,30.6,21.6,29.79,WSW,248,3.6,4.7,69,0.00,,,0.00,WUHU216HW,2013-02-04 06:21:00,
2013-02-03 23:23:00,30.6,21.6,29.79,WSW,248,4.0,4.7,69,0.00,,,0.00,WUHU216HW,2013-02-04 06:23:00,
2013-02-03 23:26:00,30.8,21.8,29.79,WSW,248,4.7,4.9,69,0.00,,,0.00,WUHU216HW,2013-02-04 06:26:00,
2013-02-03 23:28:00,30.8,21.8,29.79,SW,225,4.7,5.4,69,0.00,,,0.00,WUHU216HW,2013-02-04 06:28:00,
2013-02-03 23:31:00,31.0,22.3,29.79,SW,225,3.4,5.4,70,0.00,,,0.00,WUHU216HW,2013-02-04 06:31:00,
2013-02-03 23:33:00,31.1,22.5,29.79,WSW,248,3.1,5.4,70,0.00,,,0.00,WUHU216HW,2013-02-04 06:33:00,
2013-02-03 23:36:00,31.3,22.7,29.79,WSW,248,2.2,5.4,70,0.00,,,0.00,WUHU216HW,2013-02-04 06:36:00,
2013-02-03 23:38:00,31.3,22.7,29.79,SW,225,2.2,4.9,70,0.00,,,0.00,WUHU216HW,2013-02-04 06:38:00,
2013-02-03 23:41:00,31.3,22.3,29.79,WSW,248,3.4,3.4,69,0.00,,,0.00,WUHU216HW,2013-02-04 06:41:00,
2013-02-03 23:43:00,31.5,22.5,29.79,SW,225,2.5,3.4,69,0.00,,,0.00,WUHU216HW,2013-02-04 06:43:00,
2013-02-03 23:46:00,31.7,22.7,29.79,SW,225,2.9,3.4,69,0.00,,,0.00,WUHU216HW,2013-02-04 06:46:00,
2013-02-03 23:48:00,31.9,22.9,29.79,WSW,248,4.0,4.0,69,0.00,,,0.00,WUHU216HW,2013-02-04 06:48:00,
2013-02-03 23:49:00,31.9,22.9,29.79,WSW,248,5.1,5.1,69,0.00,,,0.00,WUHU216HW,2013-02-04 06:49:00,
2013-02-03 23:51:00,31.9,22.9,29.79,WSW,248,4.0,5.1,69,0.00,,,0.00,WUHU216HW,2013-02-04 06:51:00,
2013-02-03 23:53:00,32.0,23.0,29.79,SW,225,4.0,5.1,69,0.00,,,0.00,WUHU216HW,2013-02-04 06:53:00,
2013-02-03 23:54:00,32.0,23.0,29.79,SW,225,3.6,5.1,69,0.00,,,0.00,WUHU216HW,2013-02-04 06:54:00,
2013-02-03 23:56:00,32.0,23.0,29.79,SW,225,3.1,5.1,69,0.00,,,0.00,WUHU216HW,2013-02-04 06:56:00,
2013-02-03 23:58:00,32.0,23.0,29.78,SW,225,1.6,5.1,69,0.00,,,0.00,WUHU216HW,2013-02-04 06:58:00,
2013-02-03 23:59:00,32.0,23.0,29.78,SW,225,1.6,5.1,69,0.00,,,0.00,WUHU216HW,2013-02-04 06:59:00,